Observation data for Adrian on 11/19/2019      Previous  Date       Current Mesonet Observations  Soil Data  Daily Summary Page  Observations in Plain Language
KAD1 190600Z 18013KT 08/M01 A3002 RMK A01 T00801012  RH  052%=      5-min Rain = 0
KAD1 190601Z 18013KT 08/M01 A3002 RMK A01 T00801012  RH  052%=      5-min Rain = 0
KAD1 190602Z 18013KT 08/M01 A3002 RMK A01 T00801012  RH  052%=      5-min Rain = 0
KAD1 190603Z 18013KT 08/M01 A3002 RMK A01 T00791012  RH  052%=      5-min Rain = 0
KAD1 190604Z 18013KT 08/M01 A3002 RMK A01 T00791012  RH  052%=      5-min Rain = 0
KAD1 190605Z 18013KT 08/M01 A3002 RMK A01 T00791012  RH  053%=      5-min Rain = 0
KAD1 190606Z 18013KT 08/M01 A3002 RMK A01 T00781012  RH  053%=      5-min Rain = 0
KAD1 190607Z 18013KT 08/M01 A3002 RMK A01 T00791012  RH  053%=      5-min Rain = 0
KAD1 190608Z 18013KT 08/M01 A3002 RMK A01 T00801011  RH  052%=      5-min Rain = 0
KAD1 190609Z 18013KT 08/M01 A3002 RMK A01 T00801012  RH  052%=      5-min Rain = 0
KAD1 190610Z 18013KT 08/M01 A3002 RMK A01 T00801012  RH  052%=      5-min Rain = 0
KAD1 190611Z 18013KT 08/M01 A3002 RMK A01 T00811012  RH  052%=      5-min Rain = 0
KAD1 190612Z 18013KT 08/M01 A3002 RMK A01 T00811012  RH  052%=      5-min Rain = 0
KAD1 190613Z 18013KT 08/M01 A3002 RMK A01 T00811012  RH  052%=      5-min Rain = 0
KAD1 190614Z 18013KT 08/M01 A3002 RMK A01 T00811012  RH  052%=      5-min Rain = 0
KAD1 190615Z 18013KT 08/M01 A3002 RMK A01 T00811012  RH  052%=      5-min Rain = 0
KAD1 190616Z 18013KT 08/M01 A3002 RMK A01 T00811012  RH  052%=      5-min Rain = 0
KAD1 190617Z 18013KT 08/M01 A3002 RMK A01 T00801013  RH  052%=      5-min Rain = 0
KAD1 190618Z 18013KT 08/M01 A3002 RMK A01 T00791013  RH  052%=      5-min Rain = 0
KAD1 190619Z 18014KT 08/M01 A3002 RMK A01 T00781013  RH  052%=      5-min Rain = 0
KAD1 190620Z 18014KT 08/M01 A3002 RMK A01 T00781013  RH  053%=      5-min Rain = 0
KAD1 190621Z 18014KT 08/M01 A3002 RMK A01 T00771013  RH  053%=      5-min Rain = 0
KAD1 190622Z 18014KT 08/M01 A3002 RMK A01 T00771014  RH  053%=      5-min Rain = 0
KAD1 190623Z 18014KT 08/M01 A3002 RMK A01 T00771014  RH  053%=      5-min Rain = 0
KAD1 190624Z 18014KT 08/M01 A3002 RMK A01 T00771014  RH  053%=      5-min Rain = 0
KAD1 190625Z 18014KT 08/M01 A3002 RMK A01 T00771014  RH  052%=      5-min Rain = 0
KAD1 190626Z 18014KT 08/M01 A3002 RMK A01 T00771014  RH  052%=      5-min Rain = 0
KAD1 190627Z 18014KT 08/M01 A3002 RMK A01 T00791014  RH  052%=      5-min Rain = 0
KAD1 190628Z 18014KT 08/M01 A3001 RMK A01 T00811014  RH  051%=      5-min Rain = 0
KAD1 190629Z 18014KT 08/M02 A3001 RMK A01 T00811015  RH  051%=      5-min Rain = 0
KAD1 190630Z 18014KT 08/M02 A3001 RMK A01 T00821015  RH  050%=      5-min Rain = 0
KAD1 190631Z 18014KT 08/M02 A3002 RMK A01 T00841015  RH  050%=      5-min Rain = 0
KAD1 190632Z 18014KT 08/M02 A3002 RMK A01 T00841015  RH  050%=      5-min Rain = 0
KAD1 190633Z 18013KT 08/M02 A3002 RMK A01 T00841015  RH  050%=      5-min Rain = 0
KAD1 190634Z 18014KT 08/M02 A3002 RMK A01 T00841015  RH  050%=      5-min Rain = 0
KAD1 190635Z 18014KT 08/M02 A3001 RMK A01 T00841015  RH  050%=      5-min Rain = 0
KAD1 190636Z 18014KT 08/M02 A3001 RMK A01 T00831015  RH  050%=      5-min Rain = 0
KAD1 190637Z 18014KT 08/M02 A3001 RMK A01 T00831015  RH  050%=      5-min Rain = 0
KAD1 190638Z 18014KT 08/M02 A3001 RMK A01 T00831015  RH  050%=      5-min Rain = 0
KAD1 190639Z 18014KT 08/M02 A3001 RMK A01 T00831015  RH  050%=      5-min Rain = 0
KAD1 190640Z 18013KT 08/M02 A3001 RMK A01 T00831015  RH  050%=      5-min Rain = 0
KAD1 190641Z 18013KT 08/M02 A3001 RMK A01 T00831015  RH  050%=      5-min Rain = 0
KAD1 190642Z 18013KT 08/M02 A3001 RMK A01 T00831015  RH  050%=      5-min Rain = 0
KAD1 190643Z 18013KT 08/M02 A3001 RMK A01 T00821015  RH  050%=      5-min Rain = 0
KAD1 190644Z 18013KT 08/M02 A3001 RMK A01 T00821015  RH  050%=      5-min Rain = 0
KAD1 190645Z 18014KT 08/M02 A3001 RMK A01 T00821015  RH  050%=      5-min Rain = 0
KAD1 190646Z 18014KT 08/M02 A3001 RMK A01 T00811015  RH  051%=      5-min Rain = 0
KAD1 190647Z 18014KT 08/M02 A3001 RMK A01 T00801015  RH  051%=      5-min Rain = 0
KAD1 190648Z 18014KT 08/M02 A3001 RMK A01 T00801016  RH  051%=      5-min Rain = 0
KAD1 190649Z 18014KT 08/M02 A3001 RMK A01 T00811016  RH  051%=      5-min Rain = 0
KAD1 190650Z 18014KT 08/M02 A3002 RMK A01 T00811016  RH  050%=      5-min Rain = 0
KAD1 190651Z 18014KT 08/M02 A3002 RMK A01 T00801016  RH  051%=      5-min Rain = 0
KAD1 190652Z 18014KT 08/M02 A3001 RMK A01 T00801016  RH  051%=      5-min Rain = 0
KAD1 190653Z 18014KT 08/M02 A3001 RMK A01 T00801016  RH  051%=      5-min Rain = 0
KAD1 190654Z 18014KT 08/M02 A3001 RMK A01 T00791016  RH  051%=      5-min Rain = 0
KAD1 190655Z 18013KT 08/M02 A3001 RMK A01 T00791017  RH  051%=      5-min Rain = 0
KAD1 190656Z 18013KT 08/M02 A3001 RMK A01 T00791017  RH  051%=      5-min Rain = 0
KAD1 190657Z 18013KT 08/M02 A3001 RMK A01 T00791017  RH  051%=      5-min Rain = 0
KAD1 190658Z 18013KT 08/M02 A3001 RMK A01 T00791017  RH  051%=      5-min Rain = 0
KAD1 190659Z 18013KT 08/M02 A3001 RMK A01 T00791017  RH  051%=      5-min Rain = 0
KAD1 190700Z 18014KT 08/M02 A3001 RMK A01 T00791018  RH  050%=      5-min Rain = 0
KAD1 190701Z 18013KT 08/M02 A3001 RMK A01 T00801018  RH  050%=      5-min Rain = 0
KAD1 190702Z 18013KT 08/M02 A3001 RMK A01 T00821018  RH  049%=      5-min Rain = 0
KAD1 190703Z 18013KT 08/M02 A3001 RMK A01 T00831019  RH  049%=      5-min Rain = 0
KAD1 190704Z 18013KT 08/M02 A3001 RMK A01 T00841019  RH  048%=      5-min Rain = 0
KAD1 190705Z 18013KT 08/M02 A3001 RMK A01 T00841019  RH  048%=      5-min Rain = 0
KAD1 190706Z 18013KT 08/M02 A3001 RMK A01 T00841019  RH  048%=      5-min Rain = 0
KAD1 190707Z 18013KT 08/M02 A3001 RMK A01 T00841019  RH  049%=      5-min Rain = 0
KAD1 190708Z 18013KT 08/M02 A3001 RMK A01 T00831019  RH  049%=      5-min Rain = 0
KAD1 190709Z 18013KT 08/M02 A3001 RMK A01 T00831018  RH  049%=      5-min Rain = 0
KAD1 190710Z 18013KT 08/M02 A3001 RMK A01 T00831018  RH  049%=      5-min Rain = 0
KAD1 190711Z 18012KT 08/M02 A3001 RMK A01 T00821018  RH  049%=      5-min Rain = 0
KAD1 190712Z 18012KT 08/M02 A3001 RMK A01 T00831018  RH  049%=      5-min Rain = 0
KAD1 190713Z 18012KT 08/M02 A3001 RMK A01 T00821018  RH  049%=      5-min Rain = 0
KAD1 190714Z 18013KT 08/M02 A3001 RMK A01 T00821018  RH  049%=      5-min Rain = 0
KAD1 190715Z 18013KT 08/M02 A3001 RMK A01 T00821019  RH  049%=      5-min Rain = 0
KAD1 190716Z 18012KT 08/M02 A3001 RMK A01 T00821018  RH  049%=      5-min Rain = 0
KAD1 190717Z 18013KT 08/M02 A3001 RMK A01 T00811019  RH  049%=      5-min Rain = 0
KAD1 190718Z 18012KT 08/M02 A3001 RMK A01 T00811019  RH  049%=      5-min Rain = 0
KAD1 190719Z 18012KT 08/M02 A3001 RMK A01 T00811019  RH  049%=      5-min Rain = 0
KAD1 190720Z 18012KT 08/M02 A3001 RMK A01 T00801019  RH  050%=      5-min Rain = 0
KAD1 190721Z 18012KT 08/M02 A3001 RMK A01 T00801018  RH  050%=      5-min Rain = 0
KAD1 190722Z 18012KT 08/M02 A3001 RMK A01 T00791018  RH  050%=      5-min Rain = 0
KAD1 190723Z 18012KT 08/M02 A3001 RMK A01 T00791018  RH  050%=      5-min Rain = 0
KAD1 190724Z 18013KT 08/M02 A3001 RMK A01 T00781018  RH  050%=      5-min Rain = 0
KAD1 190725Z 18012KT 08/M02 A3001 RMK A01 T00791018  RH  050%=      5-min Rain = 0
KAD1 190726Z 18012KT 08/M02 A3001 RMK A01 T00791018  RH  050%=      5-min Rain = 0
KAD1 190727Z 18012KT 08/M02 A3001 RMK A01 T00791018  RH  050%=      5-min Rain = 0
KAD1 190728Z 18012KT 08/M02 A3001 RMK A01 T00781018  RH  051%=      5-min Rain = 0
KAD1 190729Z 18012KT 08/M02 A3001 RMK A01 T00791018  RH  051%=      5-min Rain = 0
KAD1 190730Z 18012KT 08/M02 A3001 RMK A01 T00781018  RH  051%=      5-min Rain = 0
KAD1 190731Z 18012KT 08/M02 A3001 RMK A01 T00781018  RH  051%=      5-min Rain = 0
KAD1 190732Z 18012KT 08/M02 A3001 RMK A01 T00771018  RH  051%=      5-min Rain = 0
KAD1 190733Z 18012KT 08/M02 A3001 RMK A01 T00771017  RH  051%=      5-min Rain = 0
KAD1 190734Z 18012KT 08/M02 A30 RMK A01 T00761017  RH  052%=      5-min Rain = 0
KAD1 190735Z 18012KT 08/M02 A30 RMK A01 T00751017  RH  052%=      5-min Rain = 0
KAD1 190736Z 18012KT 08/M02 A30 RMK A01 T00751017  RH  052%=      5-min Rain = 0
KAD1 190737Z 18012KT 07/M02 A30 RMK A01 T00741017  RH  053%=      5-min Rain = 0
KAD1 190738Z 18013KT 07/M02 A30 RMK A01 T00731017  RH  053%=      5-min Rain = 0
KAD1 190739Z 18013KT 07/M02 A30 RMK A01 T00731017  RH  053%=      5-min Rain = 0
KAD1 190740Z 18012KT 07/M02 A30 RMK A01 T00731017  RH  053%=      5-min Rain = 0
KAD1 190741Z 18013KT 07/M02 A30 RMK A01 T00731017  RH  053%=      5-min Rain = 0
KAD1 190742Z 18013KT 07/M02 A30 RMK A01 T00721017  RH  053%=      5-min Rain = 0
KAD1 190743Z 18013KT 07/M02 A30 RMK A01 T00711017  RH  054%=      5-min Rain = 0
KAD1 190744Z 18013KT 07/M02 A30 RMK A01 T00711017  RH  054%=      5-min Rain = 0
KAD1 190745Z 18013KT 07/M02 A30 RMK A01 T00711017  RH  054%=      5-min Rain = 0
KAD1 190746Z 18013KT 07/M02 A30 RMK A01 T00711017  RH  054%=      5-min Rain = 0
KAD1 190747Z 18013KT 07/M02 A30 RMK A01 T00711017  RH  054%=      5-min Rain = 0
KAD1 190748Z 18013KT 07/M02 A30 RMK A01 T00711017  RH  053%=      5-min Rain = 0
KAD1 190749Z 18013KT 07/M02 A30 RMK A01 T00701018  RH  053%=      5-min Rain = 0
KAD1 190750Z 18013KT 07/M02 A30 RMK A01 T00701017  RH  054%=      5-min Rain = 0
KAD1 190751Z 18013KT 07/M02 A30 RMK A01 T00701018  RH  054%=      5-min Rain = 0
KAD1 190752Z 18013KT 07/M02 A30 RMK A01 T00701018  RH  054%=      5-min Rain = 0
KAD1 190753Z 18013KT 07/M02 A30 RMK A01 T00701018  RH  054%=      5-min Rain = 0
KAD1 190754Z 18013KT 07/M02 A30 RMK A01 T00701018  RH  054%=      5-min Rain = 0
KAD1 190755Z 18013KT 07/M02 A30 RMK A01 T00691018  RH  054%=      5-min Rain = 0
KAD1 190756Z 18014KT 07/M02 A30 RMK A01 T00691018  RH  054%=      5-min Rain = 0
KAD1 190757Z 18014KT 07/M02 A30 RMK A01 T00681018  RH  054%=      5-min Rain = 0
KAD1 190758Z 18014KT 07/M02 A30 RMK A01 T00681018  RH  054%=      5-min Rain = 0
KAD1 190759Z 18014KT 07/M02 A30 RMK A01 T00681018  RH  054%=      5-min Rain = 0
KAD1 190800Z 18013KT 07/M02 A30 RMK A01 T00691018  RH  054%=      5-min Rain = 0
KAD1 190801Z 18013KT 07/M02 A30 RMK A01 T00691018  RH  054%=      5-min Rain = 0
KAD1 190802Z 18014KT 07/M02 A30 RMK A01 T00701018  RH  054%=      5-min Rain = 0
KAD1 190803Z 19013KT 07/M02 A30 RMK A01 T00701019  RH  053%=      5-min Rain = 0
KAD1 190804Z 18013KT 07/M02 A30 RMK A01 T00701018  RH  053%=      5-min Rain = 0
KAD1 190805Z 18013KT 07/M02 A30 RMK A01 T00711018  RH  053%=      5-min Rain = 0
KAD1 190806Z 19013KT 07/M02 A30 RMK A01 T00711018  RH  053%=      5-min Rain = 0
KAD1 190807Z 18013KT 07/M02 A30 RMK A01 T00721018  RH  053%=      5-min Rain = 0
KAD1 190808Z 18013KT 07/M02 A30 RMK A01 T00721018  RH  053%=      5-min Rain = 0
KAD1 190809Z 18013KT 07/M02 A30 RMK A01 T00721018  RH  053%=      5-min Rain = 0
KAD1 190810Z 19013KT 07/M02 A30 RMK A01 T00711018  RH  053%=      5-min Rain = 0
KAD1 190811Z 19013KT 07/M02 A30 RMK A01 T00711018  RH  053%=      5-min Rain = 0
KAD1 190812Z 18013KT 07/M02 A30 RMK A01 T00701018  RH  053%=      5-min Rain = 0
KAD1 190813Z 18013KT 07/M02 A30 RMK A01 T00701019  RH  053%=      5-min Rain = 0
KAD1 190814Z 18013KT 07/M02 A30 RMK A01 T00701019  RH  053%=      5-min Rain = 0
KAD1 190815Z 18013KT 07/M02 A30 RMK A01 T00701019  RH  053%=      5-min Rain = 0
KAD1 190816Z 18013KT 07/M02 A30 RMK A01 T00701019  RH  053%=      5-min Rain = 0
KAD1 190817Z 18013KT 07/M02 A30 RMK A01 T00701020  RH  053%=      5-min Rain = 0
KAD1 190818Z 18013KT 07/M02 A30 RMK A01 T00701020  RH  053%=      5-min Rain = 0
KAD1 190819Z 18013KT 07/M02 A30 RMK A01 T00711020  RH  053%=      5-min Rain = 0
KAD1 190820Z 18013KT 07/M02 A30 RMK A01 T00711020  RH  052%=      5-min Rain = 0
KAD1 190821Z 18013KT 07/M02 A30 RMK A01 T00711020  RH  052%=      5-min Rain = 0
KAD1 190822Z 18014KT 07/M02 A30 RMK A01 T00711020  RH  052%=      5-min Rain = 0
KAD1 190823Z 18013KT 07/M02 A30 RMK A01 T00711021  RH  052%=      5-min Rain = 0
KAD1 190824Z 18014KT 07/M02 A30 RMK A01 T00711021  RH  052%=      5-min Rain = 0
KAD1 190825Z 18014KT 07/M02 A30 RMK A01 T00711021  RH  052%=      5-min Rain = 0
KAD1 190826Z 18014KT 07/M02 A30 RMK A01 T00721021  RH  051%=      5-min Rain = 0
KAD1 190827Z 18014KT 07/M02 A30 RMK A01 T00731021  RH  051%=      5-min Rain = 0
KAD1 190828Z 18014KT 07/M02 A30 RMK A01 T00731021  RH  051%=      5-min Rain = 0
KAD1 190829Z 18014KT 07/M02 A30 RMK A01 T00731022  RH  051%=      5-min Rain = 0
KAD1 190830Z 18013KT 07/M02 A30 RMK A01 T00741022  RH  051%=      5-min Rain = 0
KAD1 190831Z 18013KT 07/M02 A30 RMK A01 T00741022  RH  050%=      5-min Rain = 0
KAD1 190832Z 18013KT 08/M02 A30 RMK A01 T00751022  RH  050%=      5-min Rain = 0
KAD1 190833Z 18013KT 08/M02 A30 RMK A01 T00751022  RH  050%=      5-min Rain = 0
KAD1 190834Z 18012KT 07/M02 A30 RMK A01 T00741022  RH  050%=      5-min Rain = 0
KAD1 190835Z 18013KT 07/M02 A30 RMK A01 T00741022  RH  051%=      5-min Rain = 0
KAD1 190836Z 18013KT 07/M02 A30 RMK A01 T00741022  RH  051%=      5-min Rain = 0
KAD1 190837Z 18013KT 07/M02 A30 RMK A01 T00731022  RH  051%=      5-min Rain = 0
KAD1 190838Z 18013KT 07/M02 A30 RMK A01 T00731022  RH  051%=      5-min Rain = 0
KAD1 190839Z 18013KT 07/M02 A30 RMK A01 T00731022  RH  051%=      5-min Rain = 0
KAD1 190840Z 18013KT 07/M02 A30 RMK A01 T00731022  RH  051%=      5-min Rain = 0
KAD1 190841Z 18013KT 07/M02 A30 RMK A01 T00721022  RH  051%=      5-min Rain = 0
KAD1 190842Z 18013KT 07/M02 A30 RMK A01 T00721022  RH  051%=      5-min Rain = 0
KAD1 190843Z 18013KT 07/M02 A30 RMK A01 T00711022  RH  051%=      5-min Rain = 0
KAD1 190844Z 18013KT 07/M02 A30 RMK A01 T00711022  RH  052%=      5-min Rain = 0
KAD1 190845Z 18013KT 07/M02 A30 RMK A01 T00711022  RH  052%=      5-min Rain = 0
KAD1 190846Z 18013KT 07/M02 A30 RMK A01 T00711022  RH  052%=      5-min Rain = 0
KAD1 190847Z 18013KT 07/M02 A30 RMK A01 T00711022  RH  052%=      5-min Rain = 0
KAD1 190848Z 18014KT 07/M02 A30 RMK A01 T00711022  RH  052%=      5-min Rain = 0
KAD1 190849Z 18013KT 07/M02 A30 RMK A01 T00711022  RH  052%=      5-min Rain = 0
KAD1 190850Z 18013KT 07/M02 A30 RMK A01 T00711022  RH  052%=      5-min Rain = 0
KAD1 190851Z 18013KT 07/M02 A30 RMK A01 T00711022  RH  051%=      5-min Rain = 0
KAD1 190852Z 18013KT 07/M02 A30 RMK A01 T00721022  RH  051%=      5-min Rain = 0
KAD1 190853Z 18014KT 07/M02 A30 RMK A01 T00721022  RH  051%=      5-min Rain = 0
KAD1 190854Z 18014KT 07/M02 A30 RMK A01 T00721022  RH  051%=      5-min Rain = 0
KAD1 190855Z 18014KT 07/M02 A30 RMK A01 T00721022  RH  051%=      5-min Rain = 0
KAD1 190856Z 18014KT 07/M02 A30 RMK A01 T00721022  RH  051%=      5-min Rain = 0
KAD1 190857Z 18014KT 07/M02 A2999 RMK A01 T00731022  RH  051%=      5-min Rain = 0
KAD1 190858Z 18014KT 07/M02 A2999 RMK A01 T00731022  RH  051%=      5-min Rain = 0
KAD1 190859Z 18014KT 07/M02 A2999 RMK A01 T00731022  RH  051%=      5-min Rain = 0
KAD1 190900Z 18014KT 07/M02 A2999 RMK A01 T00731022  RH  051%=      5-min Rain = 0
KAD1 190901Z 18014KT 07/M02 A2999 RMK A01 T00731022  RH  051%=      5-min Rain = 0
KAD1 190902Z 18013KT 07/M02 A2999 RMK A01 T00741021  RH  051%=      5-min Rain = 0
KAD1 190903Z 18013KT 08/M02 A2999 RMK A01 T00751021  RH  051%=      5-min Rain = 0
KAD1 190904Z 18013KT 08/M02 A2999 RMK A01 T00761021  RH  050%=      5-min Rain = 0
KAD1 190905Z 18013KT 08/M02 A2999 RMK A01 T00771021  RH  050%=      5-min Rain = 0
KAD1 190906Z 18013KT 08/M02 A2999 RMK A01 T00771022  RH  050%=      5-min Rain = 0
KAD1 190907Z 18013KT 08/M02 A2999 RMK A01 T00761022  RH  050%=      5-min Rain = 0
KAD1 190908Z 18013KT 08/M02 A2999 RMK A01 T00751022  RH  050%=      5-min Rain = 0
KAD1 190909Z 18013KT 08/M02 A2999 RMK A01 T00751021  RH  050%=      5-min Rain = 0
KAD1 190910Z 18013KT 08/M02 A2999 RMK A01 T00751021  RH  050%=      5-min Rain = 0
KAD1 190911Z 18013KT 08/M02 A2999 RMK A01 T00751021  RH  051%=      5-min Rain = 0
KAD1 190912Z 18013KT 08/M02 A2999 RMK A01 T00751021  RH  051%=      5-min Rain = 0
KAD1 190913Z 18013KT 08/M02 A2999 RMK A01 T00751021  RH  051%=      5-min Rain = 0
KAD1 190914Z 18012KT 07/M02 A2999 RMK A01 T00741021  RH  051%=      5-min Rain = 0
KAD1 190915Z 18013KT 07/M02 A2999 RMK A01 T00741021  RH  051%=      5-min Rain = 0
KAD1 190916Z 18013KT 07/M02 A2999 RMK A01 T00741021  RH  051%=      5-min Rain = 0
KAD1 190917Z 18013KT 07/M02 A2999 RMK A01 T00731021  RH  051%=      5-min Rain = 0
KAD1 190918Z 18013KT 07/M02 A2999 RMK A01 T00731021  RH  051%=      5-min Rain = 0
KAD1 190919Z 18013KT 07/M02 A2999 RMK A01 T00721021  RH  051%=      5-min Rain = 0
KAD1 190920Z 18013KT 07/M02 A2999 RMK A01 T00721021  RH  051%=      5-min Rain = 0
KAD1 190921Z 18013KT 07/M02 A2999 RMK A01 T00721022  RH  051%=      5-min Rain = 0
KAD1 190922Z 18013KT 07/M02 A2999 RMK A01 T00721021  RH  052%=      5-min Rain = 0
KAD1 190923Z 18013KT 07/M02 A2999 RMK A01 T00731021  RH  051%=      5-min Rain = 0
KAD1 190924Z 18013KT 07/M02 A2999 RMK A01 T00741021  RH  051%=      5-min Rain = 0
KAD1 190925Z 18013KT 08/M02 A2999 RMK A01 T00751020  RH  051%=      5-min Rain = 0
KAD1 190926Z 18013KT 08/M02 A2999 RMK A01 T00751020  RH  051%=      5-min Rain = 0
KAD1 190927Z 18014KT 08/M02 A2999 RMK A01 T00761020  RH  051%=      5-min Rain = 0
KAD1 190928Z 18014KT 08/M02 A2999 RMK A01 T00761020  RH  051%=      5-min Rain = 0
KAD1 190929Z 18014KT 08/M02 A2999 RMK A01 T00751020  RH  051%=      5-min Rain = 0
KAD1 190930Z 18014KT 08/M02 A2999 RMK A01 T00751020  RH  051%=      5-min Rain = 0
KAD1 190931Z 18014KT 08/M02 A2999 RMK A01 T00751020  RH  051%=      5-min Rain = 0
KAD1 190932Z 18014KT 07/M02 A2999 RMK A01 T00741020  RH  051%=      5-min Rain = 0
KAD1 190933Z 18014KT 08/M02 A2999 RMK A01 T00751020  RH  051%=      5-min Rain = 0
KAD1 190934Z 18014KT 08/M02 A2999 RMK A01 T00751020  RH  051%=      5-min Rain = 0
KAD1 190935Z 18014KT 08/M02 A2999 RMK A01 T00751020  RH  051%=      5-min Rain = 0
KAD1 190936Z 18014KT 08/M02 A2999 RMK A01 T00751020  RH  051%=      5-min Rain = 0
KAD1 190937Z 18014KT 08/M02 A2999 RMK A01 T00751020  RH  051%=      5-min Rain = 0
KAD1 190938Z 18014KT 08/M02 A2998 RMK A01 T00751020  RH  051%=      5-min Rain = 0
KAD1 190939Z 18014KT 07/M02 A2998 RMK A01 T00741021  RH  051%=      5-min Rain = 0
KAD1 190940Z 18014KT 07/M02 A2998 RMK A01 T00731021  RH  051%=      5-min Rain = 0
KAD1 190941Z 18014KT 07/M02 A2998 RMK A01 T00721021  RH  052%=      5-min Rain = 0
KAD1 190942Z 18014KT 07/M02 A2998 RMK A01 T00701021  RH  052%=      5-min Rain = 0
KAD1 190943Z 18014KT 07/M02 A2998 RMK A01 T00691021  RH  053%=      5-min Rain = 0
KAD1 190944Z 19014KT 07/M02 A2998 RMK A01 T00681021  RH  053%=      5-min Rain = 0
KAD1 190945Z 18014KT 07/M02 A2998 RMK A01 T00671021  RH  053%=      5-min Rain = 0
KAD1 190946Z 19014KT 07/M02 A2998 RMK A01 T00661021  RH  054%=      5-min Rain = 0
KAD1 190947Z 19015KT 07/M02 A2998 RMK A01 T00661021  RH  054%=      5-min Rain = 0
KAD1 190948Z 19014KT 07/M02 A2998 RMK A01 T00651021  RH  054%=      5-min Rain = 0
KAD1 190949Z 19015KT 07/M02 A2998 RMK A01 T00651021  RH  054%=      5-min Rain = 0
KAD1 190950Z 19015KT 07/M02 A2998 RMK A01 T00661021  RH  054%=      5-min Rain = 0
KAD1 190951Z 19015KT 07/M02 A2998 RMK A01 T00671021  RH  054%=      5-min Rain = 0
KAD1 190952Z 19014KT 07/M02 A2998 RMK A01 T00681020  RH  053%=      5-min Rain = 0
KAD1 190953Z 19015KT 07/M02 A2998 RMK A01 T00691021  RH  053%=      5-min Rain = 0
KAD1 190954Z 18015KT 07/M02 A2998 RMK A01 T00711020  RH  052%=      5-min Rain = 0
KAD1 190955Z 18014KT 07/M02 A2998 RMK A01 T00711020  RH  052%=      5-min Rain = 0
KAD1 190956Z 18014KT 07/M02 A2998 RMK A01 T00711020  RH  052%=      5-min Rain = 0
KAD1 190957Z 18014KT 07/M02 A2998 RMK A01 T00711020  RH  052%=      5-min Rain = 0
KAD1 190958Z 18014KT 07/M02 A2998 RMK A01 T00701020  RH  053%=      5-min Rain = 0
KAD1 190959Z 18014KT 07/M02 A2998 RMK A01 T00701020  RH  053%=      5-min Rain = 0
KAD1 191000Z 18014KT 07/M02 A2998 RMK A01 T00701020  RH  053%=      5-min Rain = 0
KAD1 191001Z 18014KT 07/M02 A2998 RMK A01 T00691020  RH  053%=      5-min Rain = 0
KAD1 191002Z 18014KT 07/M02 A2998 RMK A01 T00691021  RH  053%=      5-min Rain = 0
KAD1 191003Z 18014KT 07/M02 A2998 RMK A01 T00681021  RH  053%=      5-min Rain = 0
KAD1 191004Z 18015KT 07/M02 A2998 RMK A01 T00681020  RH  053%=      5-min Rain = 0
KAD1 191005Z 18014KT 07/M02 A2998 RMK A01 T00671020  RH  054%=      5-min Rain = 0
KAD1 191006Z 18014KT 07/M02 A2998 RMK A01 T00671021  RH  054%=      5-min Rain = 0
KAD1 191007Z 18014KT 07/M02 A2998 RMK A01 T00671021  RH  054%=      5-min Rain = 0
KAD1 191008Z 18014KT 07/M02 A2998 RMK A01 T00671020  RH  054%=      5-min Rain = 0
KAD1 191009Z 18014KT 07/M02 A2998 RMK A01 T00661021  RH  054%=      5-min Rain = 0
KAD1 191010Z 18014KT 07/M02 A2997 RMK A01 T00651021  RH  054%=      5-min Rain = 0
KAD1 191011Z 18014KT 07/M02 A2997 RMK A01 T00651021  RH  054%=      5-min Rain = 0
KAD1 191012Z 18014KT 07/M02 A2997 RMK A01 T00651021  RH  054%=      5-min Rain = 0
KAD1 191013Z 18014KT 07/M02 A2997 RMK A01 T00651020  RH  055%=      5-min Rain = 0
KAD1 191014Z 18014KT 06/M02 A2997 RMK A01 T00641020  RH  055%=      5-min Rain = 0
KAD1 191015Z 18013KT 06/M02 A2997 RMK A01 T00631020  RH  055%=      5-min Rain = 0
KAD1 191016Z 18014KT 06/M02 A2997 RMK A01 T00631020  RH  055%=      5-min Rain = 0
KAD1 191017Z 18013KT 06/M02 A2997 RMK A01 T00631020  RH  055%=      5-min Rain = 0
KAD1 191018Z 18014KT 06/M02 A2997 RMK A01 T00621020  RH  056%=      5-min Rain = 0
KAD1 191019Z 18013KT 06/M02 A2997 RMK A01 T00611020  RH  056%=      5-min Rain = 0
KAD1 191020Z 18013KT 06/M02 A2997 RMK A01 T00611020  RH  056%=      5-min Rain = 0
KAD1 191021Z 18013KT 06/M02 A2997 RMK A01 T00601020  RH  056%=      5-min Rain = 0
KAD1 191022Z 18013KT 06/M02 A2997 RMK A01 T00601020  RH  057%=      5-min Rain = 0
KAD1 191023Z 18013KT 06/M02 A2997 RMK A01 T00591020  RH  057%=      5-min Rain = 0
KAD1 191024Z 19014KT 06/M02 A2997 RMK A01 T00591020  RH  057%=      5-min Rain = 0
KAD1 191025Z 19013KT 06/M02 A2997 RMK A01 T00591019  RH  057%=      5-min Rain = 0
KAD1 191026Z 18013KT 06/M02 A2997 RMK A01 T00591019  RH  057%=      5-min Rain = 0
KAD1 191027Z 19013KT 06/M02 A2997 RMK A01 T00581020  RH  057%=      5-min Rain = 0
KAD1 191028Z 19013KT 06/M02 A2997 RMK A01 T00581020  RH  058%=      5-min Rain = 0
KAD1 191029Z 19013KT 06/M02 A2997 RMK A01 T00581019  RH  058%=      5-min Rain = 0
KAD1 191030Z 19014KT 06/M02 A2997 RMK A01 T00581019  RH  058%=      5-min Rain = 0
KAD1 191031Z 19013KT 06/M02 A2997 RMK A01 T00581019  RH  058%=      5-min Rain = 0
KAD1 191032Z 19013KT 06/M02 A2997 RMK A01 T00571019  RH  058%=      5-min Rain = 0
KAD1 191033Z 19013KT 06/M02 A2997 RMK A01 T00571019  RH  058%=      5-min Rain = 0
KAD1 191034Z 18013KT 06/M02 A2997 RMK A01 T00571018  RH  058%=      5-min Rain = 0
KAD1 191035Z 19014KT 06/M02 A2997 RMK A01 T00581018  RH  058%=      5-min Rain = 0
KAD1 191036Z 19014KT 06/M02 A2997 RMK A01 T00591017  RH  058%=      5-min Rain = 0
KAD1 191037Z 19014KT 06/M02 A2997 RMK A01 T00591017  RH  058%=      5-min Rain = 0
KAD1 191038Z 18014KT 06/M02 A2997 RMK A01 T00591017  RH  058%=      5-min Rain = 0
KAD1 191039Z 19014KT 06/M02 A2997 RMK A01 T00591016  RH  058%=      5-min Rain = 0
KAD1 191040Z 19014KT 06/M02 A2997 RMK A01 T00601016  RH  058%=      5-min Rain = 0
KAD1 191041Z 19014KT 06/M02 A2997 RMK A01 T00611016  RH  058%=      5-min Rain = 0
KAD1 191042Z 19014KT 06/M02 A2997 RMK A01 T00631015  RH  057%=      5-min Rain = 0
KAD1 191043Z 19014KT 06/M02 A2997 RMK A01 T00641015  RH  057%=      5-min Rain = 0
KAD1 191044Z 19014KT 06/M02 A2997 RMK A01 T00641016  RH  057%=      5-min Rain = 0
KAD1 191045Z 19015KT 07/M02 A2997 RMK A01 T00651015  RH  056%=      5-min Rain = 0
KAD1 191046Z 19014KT 07/M02 A2996 RMK A01 T00671015  RH  056%=      5-min Rain = 0
KAD1 191047Z 19014KT 07/M02 A2996 RMK A01 T00671015  RH  056%=      5-min Rain = 0
KAD1 191048Z 19014KT 07/M02 A2996 RMK A01 T00671015  RH  056%=      5-min Rain = 0
KAD1 191049Z 19014KT 07/M02 A2996 RMK A01 T00681015  RH  055%=      5-min Rain = 0
KAD1 191050Z 19014KT 07/M02 A2996 RMK A01 T00691015  RH  055%=      5-min Rain = 0
KAD1 191051Z 19014KT 07/M02 A2996 RMK A01 T00691015  RH  055%=      5-min Rain = 0
KAD1 191052Z 19014KT 07/M02 A2996 RMK A01 T00691016  RH  055%=      5-min Rain = 0
KAD1 191053Z 19013KT 07/M02 A2996 RMK A01 T00701015  RH  055%=      5-min Rain = 0
KAD1 191054Z 19013KT 07/M02 A2996 RMK A01 T00691016  RH  055%=      5-min Rain = 0
KAD1 191055Z 19014KT 07/M02 A2996 RMK A01 T00691015  RH  055%=      5-min Rain = 0
KAD1 191056Z 19014KT 07/M02 A2996 RMK A01 T00691015  RH  055%=      5-min Rain = 0
KAD1 191057Z 19014KT 07/M02 A2996 RMK A01 T00691016  RH  055%=      5-min Rain = 0
KAD1 191058Z 19014KT 07/M02 A2996 RMK A01 T00691016  RH  055%=      5-min Rain = 0
KAD1 191059Z 19014KT 07/M02 A2996 RMK A01 T00701015  RH  054%=      5-min Rain = 0
KAD1 191100Z 19014KT 07/M02 A2996 RMK A01 T00711016  RH  054%=      5-min Rain = 0
KAD1 191101Z 19014KT 07/M02 A2996 RMK A01 T00721016  RH  054%=      5-min Rain = 0
KAD1 191102Z 19015KT 07/M02 A2996 RMK A01 T00731016  RH  053%=      5-min Rain = 0
KAD1 191103Z 19015KT 07/M02 A2996 RMK A01 T00731016  RH  053%=      5-min Rain = 0
KAD1 191104Z 19015KT 07/M02 A2996 RMK A01 T00741016  RH  053%=      5-min Rain = 0
KAD1 191105Z 19014KT 08/M02 A2996 RMK A01 T00751016  RH  053%=      5-min Rain = 0
KAD1 191106Z 19014KT 08/M02 A2996 RMK A01 T00751016  RH  052%=      5-min Rain = 0
KAD1 191107Z 19016KT 08/M02 A2996 RMK A01 T00751016  RH  052%=      5-min Rain = 0
KAD1 191108Z 19016KT 08/M02 A2996 RMK A01 T00751016  RH  052%=      5-min Rain = 0
KAD1 191109Z 19015KT 08/M02 A2996 RMK A01 T00761016  RH  052%=      5-min Rain = 0
KAD1 191110Z 19016KT 08/M02 A2996 RMK A01 T00761016  RH  052%=      5-min Rain = 0
KAD1 191111Z 19016KT 08/M02 A2996 RMK A01 T00761016  RH  052%=      5-min Rain = 0
KAD1 191112Z 19015KT 08/M02 A2996 RMK A01 T00771016  RH  052%=      5-min Rain = 0
KAD1 191113Z 19015KT 08/M02 A2996 RMK A01 T00781016  RH  051%=      5-min Rain = 0
KAD1 191114Z 19015KT 08/M02 A2996 RMK A01 T00771016  RH  051%=      5-min Rain = 0
KAD1 191115Z 19015KT 08/M02 A2996 RMK A01 T00781016  RH  051%=      5-min Rain = 0
KAD1 191116Z 19015KT 08/M02 A2996 RMK A01 T00781016  RH  051%=      5-min Rain = 0
KAD1 191117Z 19014KT 08/M02 A2996 RMK A01 T00771016  RH  051%=      5-min Rain = 0
KAD1 191118Z 19015KT 08/M02 A2996 RMK A01 T00771017  RH  052%=      5-min Rain = 0
KAD1 191119Z 19015KT 08/M02 A2996 RMK A01 T00771017  RH  052%=      5-min Rain = 0
KAD1 191120Z 19014KT 08/M02 A2996 RMK A01 T00761017  RH  052%=      5-min Rain = 0
KAD1 191121Z 19014KT 08/M02 A2996 RMK A01 T00751017  RH  052%=      5-min Rain = 0
KAD1 191122Z 19015KT 07/M02 A2996 RMK A01 T00741017  RH  052%=      5-min Rain = 0
KAD1 191123Z 19014KT 07/M02 A2996 RMK A01 T00741017  RH  052%=      5-min Rain = 0
KAD1 191124Z 19014KT 07/M02 A2996 RMK A01 T00741017  RH  052%=      5-min Rain = 0
KAD1 191125Z 19015KT 07/M02 A2995 RMK A01 T00741018  RH  052%=      5-min Rain = 0
KAD1 191126Z 19015KT 08/M02 A2995 RMK A01 T00751017  RH  052%=      5-min Rain = 0
KAD1 191127Z 19015KT 08/M02 A2995 RMK A01 T00761018  RH  052%=      5-min Rain = 0
KAD1 191128Z 19015KT 08/M02 A2995 RMK A01 T00751018  RH  052%=      5-min Rain = 0
KAD1 191129Z 19015KT 08/M02 A2995 RMK A01 T00751018  RH  052%=      5-min Rain = 0
KAD1 191130Z 19015KT 08/M02 A2995 RMK A01 T00761018  RH  051%=      5-min Rain = 0
KAD1 191131Z 19015KT 08/M02 A2995 RMK A01 T00771018  RH  051%=      5-min Rain = 0
KAD1 191132Z 19015KT 08/M02 A2995 RMK A01 T00771018  RH  051%=      5-min Rain = 0
KAD1 191133Z 19016KT 08/M02 A2995 RMK A01 T00781018  RH  051%=      5-min Rain = 0
KAD1 191134Z 19015KT 08/M02 A2995 RMK A01 T00781019  RH  050%=      5-min Rain = 0
KAD1 191135Z 19015KT 08/M02 A2995 RMK A01 T00781019  RH  050%=      5-min Rain = 0
KAD1 191136Z 19015KT 08/M02 A2995 RMK A01 T00781019  RH  050%=      5-min Rain = 0
KAD1 191137Z 19015KT 08/M02 A2995 RMK A01 T00781019  RH  050%=      5-min Rain = 0
KAD1 191138Z 19014KT 08/M02 A2995 RMK A01 T00781019  RH  050%=      5-min Rain = 0
KAD1 191139Z 18015KT 08/M02 A2995 RMK A01 T00771019  RH  050%=      5-min Rain = 0
KAD1 191140Z 19015KT 08/M02 A2995 RMK A01 T00771019  RH  050%=      5-min Rain = 0
KAD1 191141Z 19015KT 08/M02 A2995 RMK A01 T00761020  RH  051%=      5-min Rain = 0
KAD1 191142Z 19014KT 08/M02 A2995 RMK A01 T00751020  RH  051%=      5-min Rain = 0
KAD1 191143Z 19014KT 07/M02 A2995 RMK A01 T00741020  RH  051%=      5-min Rain = 0
KAD1 191144Z 19014KT 07/M02 A2995 RMK A01 T00741020  RH  051%=      5-min Rain = 0
KAD1 191145Z 19015KT 07/M02 A2995 RMK A01 T00741020  RH  051%=      5-min Rain = 0
KAD1 191146Z 19015KT 07/M02 A2995 RMK A01 T00741020  RH  051%=      5-min Rain = 0
KAD1 191147Z 19015KT 07/M02 A2995 RMK A01 T00731020  RH  052%=      5-min Rain = 0
KAD1 191148Z 19015KT 07/M02 A2995 RMK A01 T00731020  RH  052%=      5-min Rain = 0
KAD1 191149Z 19015KT 07/M02 A2995 RMK A01 T00731021  RH  052%=      5-min Rain = 0
KAD1 191150Z 19015KT 07/M02 A2995 RMK A01 T00731021  RH  051%=      5-min Rain = 0
KAD1 191151Z 19015KT 07/M02 A2995 RMK A01 T00731021  RH  051%=      5-min Rain = 0
KAD1 191152Z 19014KT 07/M02 A2995 RMK A01 T00731021  RH  051%=      5-min Rain = 0
KAD1 191153Z 19014KT 07/M02 A2995 RMK A01 T00731021  RH  051%=      5-min Rain = 0
KAD1 191154Z 19014KT 07/M02 A2995 RMK A01 T00721022  RH  051%=      5-min Rain = 0
KAD1 191155Z 19014KT 07/M02 A2995 RMK A01 T00721022  RH  051%=      5-min Rain = 0
KAD1 191156Z 19014KT 07/M02 A2995 RMK A01 T00731022  RH  051%=      5-min Rain = 0
KAD1 191157Z 19014KT 07/M02 A2995 RMK A01 T00731022  RH  051%=      5-min Rain = 0
KAD1 191158Z 19014KT 07/M02 A2995 RMK A01 T00731022  RH  051%=      5-min Rain = 0
KAD1 191159Z 19014KT 07/M02 A2995 RMK A01 T00731023  RH  051%=      5-min Rain = 0
KAD1 191200Z 19014KT 07/M02 A2995 RMK A01 T00741023  RH  050%=      5-min Rain = 0
KAD1 191201Z 19014KT 07/M02 A2995 RMK A01 T00741023  RH  050%=      5-min Rain = 0
KAD1 191202Z 19014KT 08/M02 A2995 RMK A01 T00751022  RH  050%=      5-min Rain = 0
KAD1 191203Z 19014KT 07/M02 A2995 RMK A01 T00741023  RH  050%=      5-min Rain = 0
KAD1 191204Z 19013KT 08/M02 A2995 RMK A01 T00751023  RH  050%=      5-min Rain = 0
KAD1 191205Z 19014KT 08/M02 A2995 RMK A01 T00751022  RH  050%=      5-min Rain = 0
KAD1 191206Z 19014KT 08/M02 A2995 RMK A01 T00751022  RH  050%=      5-min Rain = 0
KAD1 191207Z 19014KT 08/M02 A2995 RMK A01 T00761022  RH  050%=      5-min Rain = 0
KAD1 191208Z 19014KT 08/M02 A2995 RMK A01 T00771022  RH  050%=      5-min Rain = 0
KAD1 191209Z 19014KT 08/M02 A2995 RMK A01 T00771022  RH  049%=      5-min Rain = 0
KAD1 191210Z 19015KT 08/M02 A2995 RMK A01 T00781022  RH  049%=      5-min Rain = 0
KAD1 191211Z 19015KT 08/M02 A2995 RMK A01 T00791022  RH  049%=      5-min Rain = 0
KAD1 191212Z 19014KT 08/M02 A2995 RMK A01 T00791022  RH  049%=      5-min Rain = 0
KAD1 191213Z 19014KT 08/M02 A2995 RMK A01 T00791022  RH  049%=      5-min Rain = 0
KAD1 191214Z 19013KT 08/M02 A2995 RMK A01 T00781022  RH  049%=      5-min Rain = 0
KAD1 191215Z 19014KT 08/M02 A2995 RMK A01 T00781021  RH  049%=      5-min Rain = 0
KAD1 191216Z 19014KT 08/M02 A2995 RMK A01 T00771021  RH  050%=      5-min Rain = 0
KAD1 191217Z 19014KT 08/M02 A2995 RMK A01 T00771021  RH  050%=      5-min Rain = 0
KAD1 191218Z 19013KT 08/M02 A2995 RMK A01 T00771021  RH  050%=      5-min Rain = 0
KAD1 191219Z 19014KT 08/M02 A2995 RMK A01 T00771021  RH  050%=      5-min Rain = 0
KAD1 191220Z 19014KT 08/M02 A2995 RMK A01 T00761021  RH  050%=      5-min Rain = 0
KAD1 191221Z 19013KT 08/M02 A2995 RMK A01 T00771020  RH  050%=      5-min Rain = 0
KAD1 191222Z 19014KT 08/M02 A2995 RMK A01 T00771020  RH  050%=      5-min Rain = 0
KAD1 191223Z 19014KT 08/M02 A2995 RMK A01 T00771020  RH  050%=      5-min Rain = 0
KAD1 191224Z 19014KT 08/M02 A2995 RMK A01 T00771020  RH  050%=      5-min Rain = 0
KAD1 191225Z 20013KT 08/M02 A2995 RMK A01 T00771020  RH  050%=      5-min Rain = 0
KAD1 191226Z 19014KT 08/M02 A2995 RMK A01 T00771020  RH  050%=      5-min Rain = 0
KAD1 191227Z 19014KT 08/M02 A2995 RMK A01 T00761020  RH  051%=      5-min Rain = 0
KAD1 191228Z 19014KT 08/M02 A2995 RMK A01 T00761019  RH  051%=      5-min Rain = 0
KAD1 191229Z 19013KT 08/M02 A2994 RMK A01 T00761019  RH  051%=      5-min Rain = 0
KAD1 191230Z 19013KT 08/M02 A2994 RMK A01 T00761019  RH  051%=      5-min Rain = 0
KAD1 191231Z 19014KT 08/M02 A2994 RMK A01 T00751019  RH  051%=      5-min Rain = 0
KAD1 191232Z 19014KT 08/M02 A2994 RMK A01 T00751019  RH  051%=      5-min Rain = 0
KAD1 191233Z 19013KT 08/M02 A2994 RMK A01 T00751019  RH  051%=      5-min Rain = 0
KAD1 191234Z 19014KT 08/M02 A2994 RMK A01 T00751018  RH  051%=      5-min Rain = 0
KAD1 191235Z 19014KT 08/M02 A2994 RMK A01 T00751018  RH  051%=      5-min Rain = 0
KAD1 191236Z 19014KT 08/M02 A2994 RMK A01 T00751018  RH  052%=      5-min Rain = 0
KAD1 191237Z 19014KT 07/M02 A2994 RMK A01 T00741018  RH  052%=      5-min Rain = 0
KAD1 191238Z 19015KT 07/M02 A2994 RMK A01 T00741018  RH  052%=      5-min Rain = 0
KAD1 191239Z 19014KT 07/M02 A2994 RMK A01 T00741018  RH  052%=      5-min Rain = 0
KAD1 191240Z 19015KT 08/M02 A2994 RMK A01 T00751018  RH  052%=      5-min Rain = 0
KAD1 191241Z 19015KT 08/M02 A2994 RMK A01 T00751018  RH  052%=      5-min Rain = 0
KAD1 191242Z 19014KT 07/M02 A2994 RMK A01 T00741018  RH  052%=      5-min Rain = 0
KAD1 191243Z 19014KT 07/M02 A2994 RMK A01 T00721018  RH  053%=      5-min Rain = 0
KAD1 191244Z 19014KT 07/M02 A2994 RMK A01 T00711018  RH  053%=      5-min Rain = 0
KAD1 191245Z 19014KT 07/M02 A2994 RMK A01 T00711018  RH  053%=      5-min Rain = 0
KAD1 191246Z 19014KT 07/M02 A2994 RMK A01 T00701018  RH  054%=      5-min Rain = 0
KAD1 191247Z 19015KT 07/M02 A2994 RMK A01 T00691018  RH  054%=      5-min Rain = 0
KAD1 191248Z 19015KT 07/M02 A2994 RMK A01 T00681018  RH  054%=      5-min Rain = 0
KAD1 191249Z 19015KT 07/M02 A2994 RMK A01 T00681018  RH  054%=      5-min Rain = 0
KAD1 191250Z 19015KT 07/M02 A2994 RMK A01 T00681018  RH  054%=      5-min Rain = 0
KAD1 191251Z 19014KT 07/M02 A2994 RMK A01 T00671018  RH  055%=      5-min Rain = 0
KAD1 191252Z 19014KT 07/M02 A2994 RMK A01 T00671017  RH  055%=      5-min Rain = 0
KAD1 191253Z 19014KT 07/M02 A2994 RMK A01 T00671017  RH  055%=      5-min Rain = 0
KAD1 191254Z 19014KT 07/M02 A2994 RMK A01 T00671018  RH  055%=      5-min Rain = 0
KAD1 191255Z 19013KT 07/M02 A2994 RMK A01 T00661018  RH  055%=      5-min Rain = 0
KAD1 191256Z 19013KT 07/M02 A2994 RMK A01 T00661017  RH  055%=      5-min Rain = 0
KAD1 191257Z 19013KT 07/M02 A2994 RMK A01 T00651018  RH  055%=      5-min Rain = 0
KAD1 191258Z 18013KT 06/M02 A2994 RMK A01 T00641018  RH  056%=      5-min Rain = 0
KAD1 191259Z 18013KT 06/M02 A2994 RMK A01 T00631018  RH  056%=      5-min Rain = 0
KAD1 191300Z 18013KT 06/M02 A2994 RMK A01 T00621018  RH  056%=      5-min Rain = 0
KAD1 191301Z 18013KT 06/M02 A2994 RMK A01 T00611018  RH  057%=      5-min Rain = 0
KAD1 191302Z 18013KT 06/M02 A2994 RMK A01 T00601018  RH  057%=      5-min Rain = 0
KAD1 191303Z 18013KT 06/M02 A2994 RMK A01 T00591018  RH  058%=      5-min Rain = 0
KAD1 191304Z 19013KT 06/M02 A2994 RMK A01 T00591017  RH  058%=      5-min Rain = 0
KAD1 191305Z 19013KT 06/M02 A2994 RMK A01 T00591017  RH  058%=      5-min Rain = 0
KAD1 191306Z 19013KT 06/M02 A2994 RMK A01 T00591017  RH  058%=      5-min Rain = 0
KAD1 191307Z 19013KT 06/M02 A2994 RMK A01 T00591017  RH  058%=      5-min Rain = 0
KAD1 191308Z 19013KT 06/M02 A2994 RMK A01 T00591017  RH  058%=      5-min Rain = 0
KAD1 191309Z 19014KT 06/M02 A2994 RMK A01 T00591017  RH  058%=      5-min Rain = 0
KAD1 191310Z 19014KT 06/M02 A2994 RMK A01 T00601016  RH  058%=      5-min Rain = 0
KAD1 191311Z 19013KT 06/M02 A2994 RMK A01 T00601017  RH  058%=      5-min Rain = 0
KAD1 191312Z 19014KT 06/M02 A2994 RMK A01 T00601017  RH  058%=      5-min Rain = 0
KAD1 191313Z 18013KT 06/M02 A2994 RMK A01 T00601017  RH  058%=      5-min Rain = 0
KAD1 191314Z 19012KT 06/M02 A2994 RMK A01 T00601016  RH  058%=      5-min Rain = 0
KAD1 191315Z 19013KT 06/M02 A2994 RMK A01 T00591017  RH  058%=      5-min Rain = 0
KAD1 191316Z 19013KT 06/M02 A2994 RMK A01 T00581017  RH  059%=      5-min Rain = 0
KAD1 191317Z 18013KT 06/M02 A2994 RMK A01 T00581017  RH  059%=      5-min Rain = 0
KAD1 191318Z 19014KT 06/M02 A2994 RMK A01 T00581016  RH  059%=      5-min Rain = 0
KAD1 191319Z 19014KT 06/M02 A2994 RMK A01 T00581016  RH  059%=      5-min Rain = 0
KAD1 191320Z 19014KT 06/M02 A2994 RMK A01 T00581016  RH  059%=      5-min Rain = 0
KAD1 191321Z 19014KT 06/M02 A2994 RMK A01 T00581016  RH  059%=      5-min Rain = 0
KAD1 191322Z 18014KT 06/M02 A2994 RMK A01 T00591015  RH  059%=      5-min Rain = 0
KAD1 191323Z 18014KT 06/M02 A2994 RMK A01 T00591015  RH  059%=      5-min Rain = 0
KAD1 191324Z 18014KT 06/M02 A2994 RMK A01 T00601015  RH  058%=      5-min Rain = 0
KAD1 191325Z 18014KT 06/M02 A2994 RMK A01 T00601015  RH  058%=      5-min Rain = 0
KAD1 191326Z 18013KT 06/M02 A2994 RMK A01 T00601015  RH  059%=      5-min Rain = 0
KAD1 191327Z 19013KT 06/M02 A2994 RMK A01 T00611015  RH  058%=      5-min Rain = 0
KAD1 191328Z 19013KT 06/M02 A2994 RMK A01 T00611015  RH  058%=      5-min Rain = 0
KAD1 191329Z 19013KT 06/M01 A2994 RMK A01 T00611014  RH  059%=      5-min Rain = 0
KAD1 191330Z 19013KT 06/M02 A2994 RMK A01 T00611015  RH  058%=      5-min Rain = 0
KAD1 191331Z 19013KT 06/M01 A2994 RMK A01 T00611014  RH  058%=      5-min Rain = 0
KAD1 191332Z 19013KT 06/M01 A2994 RMK A01 T00611014  RH  058%=      5-min Rain = 0
KAD1 191333Z 19013KT 06/M01 A2994 RMK A01 T00611014  RH  058%=      5-min Rain = 0
KAD1 191334Z 19013KT 06/M01 A2994 RMK A01 T00621014  RH  058%=      5-min Rain = 0
KAD1 191335Z 19013KT 06/M01 A2994 RMK A01 T00611014  RH  058%=      5-min Rain = 0
KAD1 191336Z 19013KT 06/M01 A2994 RMK A01 T00621014  RH  058%=      5-min Rain = 0
KAD1 191337Z 19013KT 06/M01 A2994 RMK A01 T00611014  RH  058%=      5-min Rain = 0
KAD1 191338Z 19013KT 06/M01 A2994 RMK A01 T00621014  RH  058%=      5-min Rain = 0
KAD1 191339Z 19013KT 06/M01 A2994 RMK A01 T00631014  RH  058%=      5-min Rain = 0
KAD1 191340Z 19013KT 06/M01 A2994 RMK A01 T00631013  RH  058%=      5-min Rain = 0
KAD1 191341Z 19013KT 06/M01 A2994 RMK A01 T00641014  RH  058%=      5-min Rain = 0
KAD1 191342Z 19013KT 07/M01 A2994 RMK A01 T00651013  RH  057%=      5-min Rain = 0
KAD1 191343Z 19013KT 07/M01 A2994 RMK A01 T00661013  RH  057%=      5-min Rain = 0
KAD1 191344Z 19013KT 07/M01 A2994 RMK A01 T00671013  RH  057%=      5-min Rain = 0
KAD1 191345Z 19013KT 07/M01 A2994 RMK A01 T00681013  RH  056%=      5-min Rain = 0
KAD1 191346Z 19013KT 07/M01 A2994 RMK A01 T00681013  RH  056%=      5-min Rain = 0
KAD1 191347Z 19012KT 07/M01 A2994 RMK A01 T00681013  RH  056%=      5-min Rain = 0
KAD1 191348Z 19012KT 07/M01 A2994 RMK A01 T00691013  RH  056%=      5-min Rain = 0
KAD1 191349Z 19012KT 07/M01 A2994 RMK A01 T00701012  RH  056%=      5-min Rain = 0
KAD1 191350Z 19012KT 07/M01 A2994 RMK A01 T00701012  RH  056%=      5-min Rain = 0
KAD1 191351Z 19012KT 07/M01 A2994 RMK A01 T00701012  RH  056%=      5-min Rain = 0
KAD1 191352Z 19012KT 07/M01 A2994 RMK A01 T00701012  RH  056%=      5-min Rain = 0
KAD1 191353Z 18011KT 07/M01 A2994 RMK A01 T00691012  RH  056%=      5-min Rain = 0
KAD1 191354Z 18011KT 07/M01 A2994 RMK A01 T00681013  RH  056%=      5-min Rain = 0
KAD1 191355Z 18011KT 07/M01 A2994 RMK A01 T00681013  RH  057%=      5-min Rain = 0
KAD1 191356Z 18012KT 07/M01 A2994 RMK A01 T00681012  RH  057%=      5-min Rain = 0
KAD1 191357Z 18011KT 07/M01 A2994 RMK A01 T00671013  RH  057%=      5-min Rain = 0
KAD1 191358Z 18012KT 07/M01 A2994 RMK A01 T00671013  RH  057%=      5-min Rain = 0
KAD1 191359Z 18012KT 07/M01 A2994 RMK A01 T00671012  RH  057%=      5-min Rain = 0
KAD1 191400Z 18012KT 07/M01 A2994 RMK A01 T00681012  RH  057%=      5-min Rain = 0
KAD1 191401Z 18012KT 07/M01 A2994 RMK A01 T00691011  RH  057%=      5-min Rain = 0
KAD1 191402Z 18012KT 07/M01 A2994 RMK A01 T00701011  RH  056%=      5-min Rain = 0
KAD1 191403Z 18012KT 07/M01 A2994 RMK A01 T00701011  RH  056%=      5-min Rain = 0
KAD1 191404Z 18012KT 07/M01 A2994 RMK A01 T00701011  RH  056%=      5-min Rain = 0
KAD1 191405Z 18012KT 07/M01 A2994 RMK A01 T00701011  RH  057%=      5-min Rain = 0
KAD1 191406Z 18013KT 07/M01 A2994 RMK A01 T00701010  RH  057%=      5-min Rain = 0
KAD1 191407Z 18012KT 07/M01 A2994 RMK A01 T00701011  RH  056%=      5-min Rain = 0
KAD1 191408Z 18012KT 07/M01 A2994 RMK A01 T00711011  RH  056%=      5-min Rain = 0
KAD1 191409Z 18013KT 07/M01 A2994 RMK A01 T00721011  RH  056%=      5-min Rain = 0
KAD1 191410Z 18013KT 07/M01 A2994 RMK A01 T00721011  RH  056%=      5-min Rain = 0
KAD1 191411Z 18013KT 07/M01 A2994 RMK A01 T00741010  RH  055%=      5-min Rain = 0
KAD1 191412Z 18013KT 08/M01 A2994 RMK A01 T00751010  RH  055%=      5-min Rain = 0
KAD1 191413Z 18013KT 08/M01 A2993 RMK A01 T00761010  RH  055%=      5-min Rain = 0
KAD1 191414Z 18013KT 08/M01 A2993 RMK A01 T00771010  RH  054%=      5-min Rain = 0
KAD1 191415Z 18014KT 08/M01 A2993 RMK A01 T00771010  RH  054%=      5-min Rain = 0
KAD1 191416Z 18014KT 08/M01 A2993 RMK A01 T00781010  RH  054%=      5-min Rain = 0
KAD1 191417Z 18014KT 08/M01 A2993 RMK A01 T00801009  RH  053%=      5-min Rain = 0
KAD1 191418Z 18013KT 08/M01 A2993 RMK A01 T00801009  RH  053%=      5-min Rain = 0
KAD1 191419Z 18013KT 08/M01 A2993 RMK A01 T00801010  RH  053%=      5-min Rain = 0
KAD1 191420Z 18014KT 08/M01 A2993 RMK A01 T00811009  RH  053%=      5-min Rain = 0
KAD1 191421Z 19013KT 08/M01 A2993 RMK A01 T00821009  RH  053%=      5-min Rain = 0
KAD1 191422Z 19013KT 08/M01 A2993 RMK A01 T00821008  RH  053%=      5-min Rain = 0
KAD1 191423Z 19014KT 08/M01 A2993 RMK A01 T00841008  RH  052%=      5-min Rain = 0
KAD1 191424Z 19013KT 09/M01 A2993 RMK A01 T00851008  RH  052%=      5-min Rain = 0
KAD1 191425Z 19013KT 09/M01 A2993 RMK A01 T00861008  RH  052%=      5-min Rain = 0
KAD1 191426Z 19013KT 09/M01 A2993 RMK A01 T00871008  RH  051%=      5-min Rain = 0
KAD1 191427Z 19014KT 09/M01 A2993 RMK A01 T00881008  RH  051%=      5-min Rain = 0
KAD1 191428Z 19014KT 09/M01 A2993 RMK A01 T00891007  RH  051%=      5-min Rain = 0
KAD1 191429Z 19014KT 09/M01 A2993 RMK A01 T00901007  RH  051%=      5-min Rain = 0
KAD1 191430Z 19015KT 09/M01 A2993 RMK A01 T00911007  RH  050%=      5-min Rain = 0
KAD1 191431Z 18014KT 09/M01 A2993 RMK A01 T00911007  RH  050%=      5-min Rain = 0
KAD1 191432Z 19014KT 09/M01 A2993 RMK A01 T00921006  RH  050%=      5-min Rain = 0
KAD1 191433Z 19013KT 09/M01 A2993 RMK A01 T00921006  RH  050%=      5-min Rain = 0
KAD1 191434Z 19014KT 09/M01 A2993 RMK A01 T00931006  RH  050%=      5-min Rain = 0
KAD1 191435Z 19016KT 09/M01 A2993 RMK A01 T00941006  RH  050%=      5-min Rain = 0
KAD1 191436Z 18014KT 09/M01 A2993 RMK A01 T00941006  RH  049%=      5-min Rain = 0
KAD1 191437Z 19015KT 10/M01 A2993 RMK A01 T00951005  RH  050%=      5-min Rain = 0
KAD1 191438Z 19016KT 10/M01 A2993 RMK A01 T00951006  RH  049%=      5-min Rain = 0
KAD1 191439Z 19015KT 10/M01 A2993 RMK A01 T00961005  RH  049%=      5-min Rain = 0
KAD1 191440Z 19015KT 10/M00 A2993 RMK A01 T00971004  RH  049%=      5-min Rain = 0
KAD1 191441Z 19016KT 10/M00 A2993 RMK A01 T00981004  RH  049%=      5-min Rain = 0
KAD1 191442Z 19014KT 10/M00 A2993 RMK A01 T01001004  RH  048%=      5-min Rain = 0
KAD1 191443Z 19014KT 10/M00 A2993 RMK A01 T01011003  RH  048%=      5-min Rain = 0
KAD1 191444Z 18016KT 10/M00 A2993 RMK A01 T01021003  RH  048%=      5-min Rain = 0
KAD1 191445Z 18016KT 10/M00 A2993 RMK A01 T01031003  RH  048%=      5-min Rain = 0
KAD1 191446Z 18016KT 10/M00 A2993 RMK A01 T01041003  RH  048%=      5-min Rain = 0
KAD1 191447Z 18016KT 10/M00 A2993 RMK A01 T01041003  RH  048%=      5-min Rain = 0
KAD1 191448Z 18016KT 10/M00 A2993 RMK A01 T01041003  RH  048%=      5-min Rain = 0
KAD1 191449Z 18015KT 10/M00 A2993 RMK A01 T01041002  RH  048%=      5-min Rain = 0
KAD1 191450Z 18016KT 11/M00 A2993 RMK A01 T01051002  RH  048%=      5-min Rain = 0
KAD1 191451Z 18016KT 11/M00 A2993 RMK A01 T01051001  RH  048%=      5-min Rain = 0
KAD1 191452Z 18016KT 11/M00 A2993 RMK A01 T01061001  RH  047%=      5-min Rain = 0
KAD1 191453Z 18016KT 11/M00 A2993 RMK A01 T01071001  RH  047%=      5-min Rain = 0
KAD1 191454Z 18017KT 11/00 A2993 RMK A01 T01080000  RH  047%=      5-min Rain = 0
KAD1 191455Z 18017KT 11/00 A2993 RMK A01 T010900-0  RH  047%=      5-min Rain = 0
KAD1 191456Z 18017KT 11/00 A2993 RMK A01 T01100000  RH  047%=      5-min Rain = 0
KAD1 191457Z 18015KT 11/00 A2993 RMK A01 T01120001  RH  046%=      5-min Rain = 0
KAD1 191458Z 18016KT 11/00 A2993 RMK A01 T01140002  RH  046%=      5-min Rain = 0
KAD1 191459Z 19018KT 12/00 A2992 RMK A01 T01160002  RH  046%=      5-min Rain = 0
KAD1 191500Z 18018KT 12/00 A2992 RMK A01 T01170002  RH  045%=      5-min Rain = 0
KAD1 191501Z 19016KT 12/00 A2992 RMK A01 T01190002  RH  045%=      5-min Rain = 0
KAD1 191502Z 18019KT 12/00 A2992 RMK A01 T01210003  RH  044%=      5-min Rain = 0
KAD1 191503Z 18017KT 12/00 A2992 RMK A01 T01220003  RH  044%=      5-min Rain = 0
KAD1 191504Z 19018KT 12/00 A2992 RMK A01 T01230003  RH  044%=      5-min Rain = 0
KAD1 191505Z 19016KT 13/00 A2992 RMK A01 T01250004  RH  043%=      5-min Rain = 0
KAD1 191506Z 19016KT 13/00 A2992 RMK A01 T01270003  RH  043%=      5-min Rain = 0
KAD1 191507Z 19017KT 13/00 A2992 RMK A01 T01290004  RH  042%=      5-min Rain = 0
KAD1 191508Z 19017KT 13/00 A2992 RMK A01 T01300003  RH  042%=      5-min Rain = 0
KAD1 191509Z 19017KT 13/00 A2992 RMK A01 T01310002  RH  041%=      5-min Rain = 0
KAD1 191510Z 19016KT 13/00 A2992 RMK A01 T01330002  RH  041%=      5-min Rain = 0
KAD1 191511Z 19016KT 13/00 A2992 RMK A01 T01340002  RH  040%=      5-min Rain = 0
KAD1 191512Z 19017KT 14/00 A2992 RMK A01 T01360001  RH  040%=      5-min Rain = 0
KAD1 191513Z 19017KT 14/00 A2992 RMK A01 T01380001  RH  039%=      5-min Rain = 0
KAD1 191514Z 19019KT 14/00 A2992 RMK A01 T01400000  RH  038%=      5-min Rain = 0
KAD1 191515Z 19018KT 14/00 A2992 RMK A01 T014100-0  RH  038%=      5-min Rain = 0
KAD1 191516Z 19015KT 14/00 A2992 RMK A01 T01420000  RH  038%=      5-min Rain = 0
KAD1 191517Z 19017KT 14/00 A2992 RMK A01 T01430000  RH  038%=      5-min Rain = 0
KAD1 191518Z 19017KT 14/00 A2992 RMK A01 T014300-0  RH  037%=      5-min Rain = 0
KAD1 191519Z 19019KT 14/M00 A2992 RMK A01 T01441001  RH  037%=      5-min Rain = 0
KAD1 191520Z 19020KT 15/M00 A2992 RMK A01 T01451003  RH  036%=      5-min Rain = 0
KAD1 191521Z 19017KT 15/M00 A2992 RMK A01 T01451003  RH  036%=      5-min Rain = 0
KAD1 191522Z 19020KT 15/M00 A2992 RMK A01 T01461003  RH  036%=      5-min Rain = 0
KAD1 191523Z 19019KT 15/M00 A2992 RMK A01 T01471003  RH  036%=      5-min Rain = 0
KAD1 191524Z 19019KT 15/M00 A2992 RMK A01 T01481003  RH  036%=      5-min Rain = 0
KAD1 191525Z 19019G24KT 15/M00 A2992 RMK A01 T01491003  RH  035%=      5-min Rain = 0
KAD1 191526Z 19017KT 15/M00 A2992 RMK A01 T01501003  RH  035%=      5-min Rain = 0
KAD1 191527Z 19019KT 15/M00 A2992 RMK A01 T01521003  RH  035%=      5-min Rain = 0
KAD1 191528Z 20019KT 15/M00 A2992 RMK A01 T01531003  RH  035%=      5-min Rain = 0
KAD1 191529Z 19018KT 15/M00 A2992 RMK A01 T01541004  RH  034%=      5-min Rain = 0
KAD1 191530Z 19016KT 16/M00 A2992 RMK A01 T01561003  RH  034%=      5-min Rain = 0
KAD1 191531Z 20018KT 16/M00 A2992 RMK A01 T01571003  RH  034%=      5-min Rain = 0
KAD1 191532Z 19016KT 16/M00 A2992 RMK A01 T01581003  RH  033%=      5-min Rain = 0
KAD1 191533Z 20019KT 16/M00 A2992 RMK A01 T01591004  RH  033%=      5-min Rain = 0
KAD1 191534Z 20020KT 16/M01 A2992 RMK A01 T01591006  RH  032%=      5-min Rain = 0
KAD1 191535Z 20018KT 16/M01 A2992 RMK A01 T01581006  RH  033%=      5-min Rain = 0
KAD1 191536Z 20018KT 16/M01 A2992 RMK A01 T01591005  RH  033%=      5-min Rain = 0
KAD1 191537Z 20019KT 16/M01 A2992 RMK A01 T01591006  RH  032%=      5-min Rain = 0
KAD1 191538Z 20021KT 16/M01 A2992 RMK A01 T01601005  RH  032%=      5-min Rain = 0
KAD1 191539Z 20018KT 16/M01 A2992 RMK A01 T01601006  RH  032%=      5-min Rain = 0
KAD1 191540Z 20016KT 16/M00 A2992 RMK A01 T01611004  RH  032%=      5-min Rain = 0
KAD1 191541Z 20020KT 16/M00 A2992 RMK A01 T01641004  RH  032%=      5-min Rain = 0
KAD1 191542Z 20018KT 16/M01 A2992 RMK A01 T01621005  RH  032%=      5-min Rain = 0
KAD1 191543Z 20020KT 16/M01 A2992 RMK A01 T01611006  RH  032%=      5-min Rain = 0
KAD1 191544Z 20022KT 16/M01 A2992 RMK A01 T01591007  RH  032%=      5-min Rain = 0
KAD1 191545Z 19019KT 16/M01 A2992 RMK A01 T01581006  RH  033%=      5-min Rain = 0
KAD1 191546Z 20020KT 16/M01 A2992 RMK A01 T01581006  RH  033%=      5-min Rain = 0
KAD1 191547Z 20021KT 16/M01 A2992 RMK A01 T01581007  RH  032%=      5-min Rain = 0
KAD1 191548Z 20021KT 16/M01 A2992 RMK A01 T01571008  RH  032%=      5-min Rain = 0
KAD1 191549Z 20019KT 16/M01 A2992 RMK A01 T01561008  RH  033%=      5-min Rain = 0
KAD1 191550Z 20022KT 16/M01 A2992 RMK A01 T01551008  RH  033%=      5-min Rain = 0
KAD1 191551Z 20021KT 16/M01 A2992 RMK A01 T01551009  RH  033%=      5-min Rain = 0
KAD1 191552Z 20020KT 16/M01 A2992 RMK A01 T01551008  RH  033%=      5-min Rain = 0
KAD1 191553Z 20020KT 16/M01 A2992 RMK A01 T01561009  RH  032%=      5-min Rain = 0
KAD1 191554Z 20017G23KT 16/M01 A2992 RMK A01 T01581007  RH  032%=      5-min Rain = 0
KAD1 191555Z 20021KT 16/M01 A2992 RMK A01 T01611007  RH  032%=      5-min Rain = 0
KAD1 191556Z 20022KT 16/M01 A2992 RMK A01 T01621007  RH  032%=      5-min Rain = 0
KAD1 191557Z 20020KT 16/M01 A2992 RMK A01 T01641007  RH  031%=      5-min Rain = 0
KAD1 191558Z 20019KT 17/M01 A2992 RMK A01 T01661005  RH  031%=      5-min Rain = 0
KAD1 191559Z 20018G24KT 17/M01 A2992 RMK A01 T01671005  RH  031%=      5-min Rain = 0
KAD1 191600Z 20021KT 17/M01 A2992 RMK A01 T01681006  RH  031%=      5-min Rain = 0
KAD1 191601Z 20019KT 17/M01 A2992 RMK A01 T01681006  RH  031%=      5-min Rain = 0
KAD1 191602Z 20021G27KT 17/M01 A2992 RMK A01 T01691006  RH  030%=      5-min Rain = 0
KAD1 191603Z 20019KT 17/M01 A2992 RMK A01 T01691008  RH  030%=      5-min Rain = 0
KAD1 191604Z 20019KT 17/M01 A2992 RMK A01 T01691006  RH  030%=      5-min Rain = 0
KAD1 191605Z 20020KT 17/M01 A2992 RMK A01 T01701006  RH  030%=      5-min Rain = 0
KAD1 191606Z 20017G23KT 17/M01 A2992 RMK A01 T01701006  RH  030%=      5-min Rain = 0
KAD1 191607Z 20022KT 17/M01 A2992 RMK A01 T01701006  RH  030%=      5-min Rain = 0
KAD1 191608Z 20022KT 17/M01 A2992 RMK A01 T01691007  RH  030%=      5-min Rain = 0
KAD1 191609Z 20021KT 17/M01 A2992 RMK A01 T01701007  RH  030%=      5-min Rain = 0
KAD1 191610Z 20020KT 17/M01 A2992 RMK A01 T01721006  RH  030%=      5-min Rain = 0
KAD1 191611Z 20015KT 17/M00 A2992 RMK A01 T01731003  RH  030%=      5-min Rain = 0
KAD1 191612Z 19018KT 18/M00 A2992 RMK A01 T01761003  RH  030%=      5-min Rain = 0
KAD1 191613Z 20020KT 18/M01 A2992 RMK A01 T01771005  RH  029%=      5-min Rain = 0
KAD1 191614Z 20019G24KT 18/M01 A2992 RMK A01 T01771005  RH  029%=      5-min Rain = 0
KAD1 191615Z 20021KT 18/M01 A2992 RMK A01 T01791005  RH  029%=      5-min Rain = 0
KAD1 191616Z 20019G24KT 18/M01 A2992 RMK A01 T01801005  RH  029%=      5-min Rain = 0
KAD1 191617Z 20020G25KT 18/M01 A2992 RMK A01 T01811005  RH  028%=      5-min Rain = 0
KAD1 191618Z 20019KT 18/M00 A2992 RMK A01 T01821004  RH  028%=      5-min Rain = 0
KAD1 191619Z 20021KT 19/M01 A2992 RMK A01 T01851005  RH  028%=      5-min Rain = 0
KAD1 191620Z 20019KT 19/M01 A2992 RMK A01 T01861006  RH  027%=      5-min Rain = 0
KAD1 191621Z 21021G26KT 19/M01 A2992 RMK A01 T01871006  RH  027%=      5-min Rain = 0
KAD1 191622Z 20021G27KT 19/M01 A2992 RMK A01 T01891006  RH  027%=      5-min Rain = 0
KAD1 191623Z 20020G25KT 19/M01 A2992 RMK A01 T01891007  RH  027%=      5-min Rain = 0
KAD1 191624Z 20022KT 19/M01 A2992 RMK A01 T01901007  RH  026%=      5-min Rain = 0
KAD1 191625Z 20020KT 19/M01 A2992 RMK A01 T01891007  RH  027%=      5-min Rain = 0
KAD1 191626Z 20021KT 19/M01 A2992 RMK A01 T01891007  RH  027%=      5-min Rain = 0
KAD1 191627Z 21019KT 19/M01 A2992 RMK A01 T01901008  RH  026%=      5-min Rain = 0
KAD1 191628Z 21019KT 19/M01 A2992 RMK A01 T01921005  RH  026%=      5-min Rain = 0
KAD1 191629Z 21017G23KT 19/M01 A2992 RMK A01 T01941007  RH  026%=      5-min Rain = 0
KAD1 191630Z 21019G24KT 20/M01 A2992 RMK A01 T01951007  RH  026%=      5-min Rain = 0
KAD1 191631Z 21022KT 20/M01 A2992 RMK A01 T01951008  RH  025%=      5-min Rain = 0
KAD1 191632Z 21022KT 20/M01 A2992 RMK A01 T01951010  RH  025%=      5-min Rain = 0
KAD1 191633Z 21020KT 20/M01 A2992 RMK A01 T01951010  RH  025%=      5-min Rain = 0
KAD1 191634Z 21021KT 20/M01 A2992 RMK A01 T01951010  RH  025%=      5-min Rain = 0
KAD1 191635Z 21019KT 20/M01 A2992 RMK A01 T01951010  RH  025%=      5-min Rain = 0
KAD1 191636Z 21019KT 20/M01 A2992 RMK A01 T01961008  RH  025%=      5-min Rain = 0
KAD1 191637Z 20020KT 20/M01 A2992 RMK A01 T01961009  RH  025%=      5-min Rain = 0
KAD1 191638Z 21019G24KT 20/M01 A2992 RMK A01 T01971009  RH  025%=      5-min Rain = 0
KAD1 191639Z 21020KT 20/M01 A2992 RMK A01 T01971009  RH  025%=      5-min Rain = 0
KAD1 191640Z 21021KT 20/M01 A2992 RMK A01 T01981009  RH  025%=      5-min Rain = 0
KAD1 191641Z 21019KT 20/M01 A2992 RMK A01 T01981009  RH  025%=      5-min Rain = 0
KAD1 191642Z 20020KT 20/M01 A2992 RMK A01 T01981009  RH  025%=      5-min Rain = 0
KAD1 191643Z 20020KT 20/M01 A2992 RMK A01 T01981009  RH  025%=      5-min Rain = 0
KAD1 191644Z 20020KT 20/M01 A2992 RMK A01 T01971008  RH  025%=      5-min Rain = 0
KAD1 191645Z 20021KT 20/M01 A2992 RMK A01 T01961010  RH  025%=      5-min Rain = 0
KAD1 191646Z 20020KT 19/M01 A2992 RMK A01 T01941011  RH  025%=      5-min Rain = 0
KAD1 191647Z 20018KT 19/M01 A2992 RMK A01 T01931010  RH  025%=      5-min Rain = 0
KAD1 191648Z 20019KT 19/M01 A2992 RMK A01 T01931009  RH  026%=      5-min Rain = 0
KAD1 191649Z 21021KT 20/M01 A2992 RMK A01 T01951011  RH  025%=      5-min Rain = 0
KAD1 191650Z 21020KT 19/M01 A2992 RMK A01 T01941011  RH  025%=      5-min Rain = 0
KAD1 191651Z 21018KT 19/M01 A2992 RMK A01 T01931011  RH  025%=      5-min Rain = 0
KAD1 191652Z 21017KT 19/M01 A2992 RMK A01 T01931009  RH  026%=      5-min Rain = 0
KAD1 191653Z 20020KT 20/M01 A2992 RMK A01 T01951010  RH  025%=      5-min Rain = 0
KAD1 191654Z 21020KT 19/M01 A2992 RMK A01 T01941010  RH  025%=      5-min Rain = 0
KAD1 191655Z 20019KT 19/M01 A2992 RMK A01 T01931010  RH  025%=      5-min Rain = 0
KAD1 191656Z 21018KT 19/M01 A2992 RMK A01 T01931009  RH  026%=      5-min Rain = 0
KAD1 191657Z 21019KT 19/M01 A2992 RMK A01 T01931009  RH  026%=      5-min Rain = 0
KAD1 191658Z 21017G22KT 19/M01 A2992 RMK A01 T01921011  RH  025%=      5-min Rain = 0
KAD1 191659Z 21016KT 19/M01 A2992 RMK A01 T01911008  RH  026%=      5-min Rain = 0
KAD1 191700Z 20016KT 19/M01 A2992 RMK A01 T01921009  RH  026%=      5-min Rain = 0
KAD1 191701Z 20015KT 19/M01 A2992 RMK A01 T01921009  RH  026%=      5-min Rain = 0
KAD1 191702Z 21014KT 19/M01 A2992 RMK A01 T01921008  RH  026%=      5-min Rain = 0
KAD1 191703Z 21015KT 19/M01 A2992 RMK A01 T01931007  RH  026%=      5-min Rain = 0
KAD1 191704Z 20018KT 19/M01 A2992 RMK A01 T01941008  RH  026%=      5-min Rain = 0
KAD1 191705Z 20018KT 19/M01 A2991 RMK A01 T01931010  RH  025%=      5-min Rain = 0
KAD1 191706Z 21015KT 19/M01 A2992 RMK A01 T01911009  RH  026%=      5-min Rain = 0
KAD1 191707Z 21016KT 19/M01 A2992 RMK A01 T01911009  RH  026%=      5-min Rain = 0
KAD1 191708Z 21016KT 19/M01 A2992 RMK A01 T01901009  RH  026%=      5-min Rain = 0
KAD1 191709Z 21017KT 19/M01 A2992 RMK A01 T01891009  RH  026%=      5-min Rain = 0
KAD1 191710Z 20014KT 19/M01 A2992 RMK A01 T01871010  RH  026%=      5-min Rain = 0
KAD1 191711Z 20015KT 19/M01 A2992 RMK A01 T01861007  RH  027%=      5-min Rain = 0
KAD1 191712Z 20015KT 19/M01 A2991 RMK A01 T01861007  RH  027%=      5-min Rain = 0
KAD1 191713Z 21018KT 19/M01 A2991 RMK A01 T01851008  RH  027%=      5-min Rain = 0
KAD1 191714Z 21015KT 19/M01 A2991 RMK A01 T01871008  RH  027%=      5-min Rain = 0
KAD1 191715Z 20014G19KT 19/M01 A2991 RMK A01 T01911005  RH  027%=      5-min Rain = 0
KAD1 191716Z 20017KT 19/M01 A2991 RMK A01 T01941005  RH  026%=      5-min Rain = 0
KAD1 191717Z 20017KT 19/M01 A2991 RMK A01 T01941007  RH  026%=      5-min Rain = 0
KAD1 191718Z 20015KT 20/M01 A2991 RMK A01 T01951007  RH  026%=      5-min Rain = 0
KAD1 191719Z 20017KT 20/M01 A2991 RMK A01 T01971005  RH  026%=      5-min Rain = 0
KAD1 191720Z 20017KT 20/M01 A2991 RMK A01 T01971005  RH  026%=      5-min Rain = 0
KAD1 191721Z 20018KT 20/M01 A2991 RMK A01 T01981005  RH  026%=      5-min Rain = 0
KAD1 191722Z 20015KT 20/M00 A2991 RMK A01 T01991004  RH  025%=      5-min Rain = 0
KAD1 191723Z 20017KT 20/M01 A2991 RMK A01 T02011005  RH  025%=      5-min Rain = 0
KAD1 191724Z 21017KT 20/M01 A2991 RMK A01 T02041007  RH  024%=      5-min Rain = 0
KAD1 191725Z 21018KT 21/M01 A2991 RMK A01 T02081006  RH  024%=      5-min Rain = 0
KAD1 191726Z 21015KT 21/M01 A2991 RMK A01 T02091007  RH  024%=      5-min Rain = 0
KAD1 191727Z 21018KT 21/M01 A299 RMK A01 T02111009  RH  023%=      5-min Rain = 0
KAD1 191728Z 21020KT 21/M01 A299 RMK A01 T02121010  RH  023%=      5-min Rain = 0
KAD1 191729Z 21016KT 21/M01 A299 RMK A01 T02111010  RH  023%=      5-min Rain = 0
KAD1 191730Z 21017KT 21/M01 A299 RMK A01 T02111010  RH  023%=      5-min Rain = 0
KAD1 191731Z 22016G21KT 21/M01 A299 RMK A01 T02121010  RH  023%=      5-min Rain = 0
KAD1 191732Z 22015KT 21/M01 A299 RMK A01 T02141010  RH  022%=      5-min Rain = 0
KAD1 191733Z 22019KT 22/M01 A299 RMK A01 T02161014  RH  021%=      5-min Rain = 0
KAD1 191734Z 22019KT 22/M02 A299 RMK A01 T02151017  RH  021%=      5-min Rain = 0
KAD1 191735Z 22016G21KT 22/M01 A299 RMK A01 T02161014  RH  021%=      5-min Rain = 0
KAD1 191736Z 23019KT 22/M02 A299 RMK A01 T02171016  RH  021%=      5-min Rain = 0
KAD1 191737Z 23016KT 22/M02 A299 RMK A01 T02171015  RH  021%=      5-min Rain = 0
KAD1 191738Z 23019KT 22/M02 A299 RMK A01 T02161015  RH  021%=      5-min Rain = 0
KAD1 191739Z 22021KT 21/M02 A299 RMK A01 T02131017  RH  021%=      5-min Rain = 0
KAD1 191740Z 22021G26KT 21/M02 A299 RMK A01 T02121018  RH  021%=      5-min Rain = 0
KAD1 191741Z 23019KT 21/M02 A299 RMK A01 T02121018  RH  021%=      5-min Rain = 0
KAD1 191742Z 23019KT 21/M02 A299 RMK A01 T02121018  RH  021%=      5-min Rain = 0
KAD1 191743Z 21021KT 21/M02 A2989 RMK A01 T02141016  RH  021%=      5-min Rain = 0
KAD1 191744Z 20018KT 22/M02 A2989 RMK A01 T02151015  RH  021%=      5-min Rain = 0
KAD1 191745Z 21022KT 22/M02 A2989 RMK A01 T02171015  RH  021%=      5-min Rain = 0
KAD1 191746Z 21019G24KT 22/M02 A2989 RMK A01 T02181015  RH  021%=      5-min Rain = 0
KAD1 191747Z 21021KT 22/M02 A2989 RMK A01 T02191016  RH  021%=      5-min Rain = 0
KAD1 191748Z 21024KT 22/M02 A2989 RMK A01 T02201018  RH  020%=      5-min Rain = 0
KAD1 191749Z 21020G25KT 22/M02 A2989 RMK A01 T02191020  RH  020%=      5-min Rain = 0
KAD1 191750Z 21016KT 22/M02 A2989 RMK A01 T02181016  RH  021%=      5-min Rain = 0
KAD1 191751Z 22021KT 22/M02 A2989 RMK A01 T02181016  RH  021%=      5-min Rain = 0
KAD1 191752Z 22017G22KT 22/M02 A2989 RMK A01 T02171019  RH  021%=      5-min Rain = 0
KAD1 191753Z 21018KT 22/M02 A2989 RMK A01 T02161018  RH  021%=      5-min Rain = 0
KAD1 191754Z 22018KT 22/M02 A2989 RMK A01 T02151019  RH  021%=      5-min Rain = 0
KAD1 191755Z 22019KT 22/M02 A2989 RMK A01 T02161018  RH  021%=      5-min Rain = 0
KAD1 191756Z 22020KT 22/M02 A2989 RMK A01 T02151021  RH  020%=      5-min Rain = 0
KAD1 191757Z 22017KT 22/M02 A2988 RMK A01 T02151022  RH  020%=      5-min Rain = 0
KAD1 191758Z 22022KT 22/M02 A2988 RMK A01 T02151024  RH  020%=      5-min Rain = 0
KAD1 191759Z 22020KT 22/M03 A2988 RMK A01 T02171025  RH  020%=      5-min Rain = 0
KAD1 191800Z 22019KT 22/M02 A2988 RMK A01 T02191022  RH  020%=      5-min Rain = 0
KAD1 191801Z 23019KT 22/M02 A2988 RMK A01 T02221021  RH  019%=      5-min Rain = 0
KAD1 191802Z 22020KT 22/M02 A2988 RMK A01 T02231021  RH  019%=      5-min Rain = 0
KAD1 191803Z 21020G25KT 22/M02 A2988 RMK A01 T02221021  RH  020%=      5-min Rain = 0
KAD1 191804Z 21021KT 22/M02 A2988 RMK A01 T02201022  RH  020%=      5-min Rain = 0
KAD1 191805Z 21019KT 22/M02 A2988 RMK A01 T02191021  RH  020%=      5-min Rain = 0
KAD1 191806Z 22022KT 22/M02 A2988 RMK A01 T02191020  RH  020%=      5-min Rain = 0
KAD1 191807Z 23022KT 22/M02 A2988 RMK A01 T02191021  RH  020%=      5-min Rain = 0
KAD1 191808Z 22021KT 22/M02 A2988 RMK A01 T02171023  RH  020%=      5-min Rain = 0
KAD1 191809Z 22020KT 22/M02 A2988 RMK A01 T02171022  RH  020%=      5-min Rain = 0
KAD1 191810Z 22018KT 22/M02 A2988 RMK A01 T02201019  RH  020%=      5-min Rain = 0
KAD1 191811Z 23021KT 22/M02 A2988 RMK A01 T02241018  RH  020%=      5-min Rain = 0
KAD1 191812Z 22018KT 23/M02 A2988 RMK A01 T02251019  RH  019%=      5-min Rain = 0
KAD1 191813Z 22019KT 23/M02 A2987 RMK A01 T02271018  RH  019%=      5-min Rain = 0
KAD1 191814Z 22019KT 23/M02 A2987 RMK A01 T02301018  RH  019%=      5-min Rain = 0
KAD1 191815Z 22018G23KT 23/M02 A2987 RMK A01 T02321018  RH  019%=      5-min Rain = 0
KAD1 191816Z 21019G24KT 23/M02 A2987 RMK A01 T02331018  RH  019%=      5-min Rain = 0
KAD1 191817Z 22019KT 23/M02 A2987 RMK A01 T02341019  RH  019%=      5-min Rain = 0
KAD1 191818Z 22021KT 23/M02 A2987 RMK A01 T02341019  RH  019%=      5-min Rain = 0
KAD1 191819Z 21018KT 24/M02 A2987 RMK A01 T02351018  RH  019%=      5-min Rain = 0
KAD1 191820Z 21016KT 24/M02 A2987 RMK A01 T02361017  RH  018%=      5-min Rain = 0
KAD1 191821Z 22015KT 24/M02 A2987 RMK A01 T02381016  RH  018%=      5-min Rain = 0
KAD1 191822Z 22019KT 24/M02 A2987 RMK A01 T02391016  RH  018%=      5-min Rain = 0
KAD1 191823Z 23018KT 24/M02 A2987 RMK A01 T02381018  RH  018%=      5-min Rain = 0
KAD1 191824Z 23016KT 24/M02 A2987 RMK A01 T02371016  RH  018%=      5-min Rain = 0
KAD1 191825Z 22018KT 24/M02 A2987 RMK A01 T02401015  RH  018%=      5-min Rain = 0
KAD1 191826Z 23018KT 24/M02 A2987 RMK A01 T02401015  RH  018%=      5-min Rain = 0
KAD1 191827Z 22019G24KT 24/M02 A2987 RMK A01 T02391016  RH  018%=      5-min Rain = 0
KAD1 191828Z 22021KT 24/M02 A2987 RMK A01 T02371016  RH  019%=      5-min Rain = 0
KAD1 191829Z 22023KT 24/M02 A2987 RMK A01 T02361016  RH  019%=      5-min Rain = 0
KAD1 191830Z 22021KT 24/M02 A2987 RMK A01 T02351016  RH  019%=      5-min Rain = 0
KAD1 191831Z 23022KT 23/M02 A2987 RMK A01 T02341018  RH  019%=      5-min Rain = 0
KAD1 191832Z 23021KT 23/M02 A2987 RMK A01 T02321019  RH  019%=      5-min Rain = 0
KAD1 191833Z 22022KT 23/M02 A2987 RMK A01 T02311018  RH  019%=      5-min Rain = 0
KAD1 191834Z 23020G25KT 23/M02 A2987 RMK A01 T02311018  RH  019%=      5-min Rain = 0
KAD1 191835Z 23021KT 23/M02 A2987 RMK A01 T02301018  RH  019%=      5-min Rain = 0
KAD1 191836Z 22021KT 23/M02 A2987 RMK A01 T02301017  RH  019%=      5-min Rain = 0
KAD1 191837Z 23019G25KT 23/M02 A2987 RMK A01 T02301017  RH  019%=      5-min Rain = 0
KAD1 191838Z 23018KT 23/M02 A2986 RMK A01 T02311015  RH  019%=      5-min Rain = 0
KAD1 191839Z 23020KT 23/M02 A2986 RMK A01 T02331015  RH  019%=      5-min Rain = 0
KAD1 191840Z 23016KT 23/M02 A2986 RMK A01 T02321015  RH  019%=      5-min Rain = 0
KAD1 191841Z 24016KT 23/M01 A2986 RMK A01 T02331013  RH  019%=      5-min Rain = 0
KAD1 191842Z 24018KT 24/M02 A2986 RMK A01 T02351017  RH  019%=      5-min Rain = 0
KAD1 191843Z 22017G22KT 23/M02 A2986 RMK A01 T02331018  RH  019%=      5-min Rain = 0
KAD1 191844Z 23017KT 24/M02 A2986 RMK A01 T02351019  RH  018%=      5-min Rain = 0
KAD1 191845Z 23022G27KT 24/M02 A2986 RMK A01 T02351019  RH  018%=      5-min Rain = 0
KAD1 191846Z 23020G26KT 24/M02 A2986 RMK A01 T02351020  RH  018%=      5-min Rain = 0
KAD1 191847Z 24018KT 23/M02 A2986 RMK A01 T02341019  RH  019%=      5-min Rain = 0
KAD1 191848Z 23016G21KT 23/M02 A2986 RMK A01 T02341019  RH  018%=      5-min Rain = 0
KAD1 191849Z 24016KT 24/M02 A2986 RMK A01 T02351018  RH  019%=      5-min Rain = 0
KAD1 191850Z 23019G26KT 24/M02 A2986 RMK A01 T02351016  RH  019%=      5-min Rain = 0
KAD1 191851Z 23018G23KT 24/M02 A2986 RMK A01 T02371018  RH  018%=      5-min Rain = 0
KAD1 191852Z 23018KT 24/M02 A2985 RMK A01 T02371018  RH  018%=      5-min Rain = 0
KAD1 191853Z 23018G23KT 24/M02 A2985 RMK A01 T02371019  RH  018%=      5-min Rain = 0
KAD1 191854Z 23021G27KT 24/M02 A2985 RMK A01 T02371019  RH  018%=      5-min Rain = 0
KAD1 191855Z 23023KT 24/M02 A2985 RMK A01 T02371023  RH  018%=      5-min Rain = 0
KAD1 191856Z 23020KT 24/M03 A2985 RMK A01 T02351026  RH  017%=      5-min Rain = 0
KAD1 191857Z 23014KT 24/M02 A2985 RMK A01 T02361021  RH  018%=      5-min Rain = 0
KAD1 191858Z 25017KT 24/M02 A2985 RMK A01 T02401019  RH  018%=      5-min Rain = 0
KAD1 191859Z 23017KT 24/M02 A2985 RMK A01 T02401021  RH  018%=      5-min Rain = 0
KAD1 191900Z 24016KT 24/M02 A2985 RMK A01 T02401019  RH  018%=      5-min Rain = 0
KAD1 191901Z 24019KT 24/M02 A2985 RMK A01 T02401019  RH  018%=      5-min Rain = 0
KAD1 191902Z 24022KT 24/M02 A2985 RMK A01 T02411020  RH  018%=      5-min Rain = 0
KAD1 191903Z 24019G27KT 24/M02 A2985 RMK A01 T02391021  RH  018%=      5-min Rain = 0
KAD1 191904Z 24021KT 24/M02 A2985 RMK A01 T02381023  RH  017%=      5-min Rain = 0
KAD1 191905Z 25021G26KT 24/M02 A2985 RMK A01 T02371022  RH  018%=      5-min Rain = 0
KAD1 191906Z 24016KT 24/M02 A2985 RMK A01 T02371022  RH  018%=      5-min Rain = 0
KAD1 191907Z 24016KT 24/M02 A2985 RMK A01 T02381021  RH  018%=      5-min Rain = 0
KAD1 191908Z 25018G23KT 24/M02 A2985 RMK A01 T02391021  RH  018%=      5-min Rain = 0
KAD1 191909Z 24017KT 24/M02 A2984 RMK A01 T02401020  RH  018%=      5-min Rain = 0
KAD1 191910Z 23018G23KT 24/M02 A2984 RMK A01 T02421018  RH  018%=      5-min Rain = 0
KAD1 191911Z 23020G26KT 24/M02 A2984 RMK A01 T02431019  RH  017%=      5-min Rain = 0
KAD1 191912Z 22019G25KT 24/M02 A2984 RMK A01 T02421021  RH  017%=      5-min Rain = 0
KAD1 191913Z 23020KT 24/M02 A2984 RMK A01 T02411021  RH  017%=      5-min Rain = 0
KAD1 191914Z 23021G26KT 24/M02 A2984 RMK A01 T02401022  RH  017%=      5-min Rain = 0
KAD1 191915Z 22020KT 24/M02 A2984 RMK A01 T02411021  RH  017%=      5-min Rain = 0
KAD1 191916Z 23024KT 24/M02 A2984 RMK A01 T02421022  RH  017%=      5-min Rain = 0
KAD1 191917Z 25022KT 24/M02 A2984 RMK A01 T02401023  RH  017%=      5-min Rain = 0
KAD1 191918Z 25017G22KT 24/M02 A2984 RMK A01 T02381024  RH  017%=      5-min Rain = 0
KAD1 191919Z 24022KT 24/M02 A2984 RMK A01 T02371024  RH  018%=      5-min Rain = 0
KAD1 191920Z 23020KT 24/M02 A2984 RMK A01 T02371024  RH  018%=      5-min Rain = 0
KAD1 191921Z 22021G28KT 24/M03 A2984 RMK A01 T02361025  RH  018%=      5-min Rain = 0
KAD1 191922Z 22021KT 24/M02 A2984 RMK A01 T02361024  RH  018%=      5-min Rain = 0
KAD1 191923Z 23021KT 24/M02 A2984 RMK A01 T02391024  RH  017%=      5-min Rain = 0
KAD1 191924Z 23018KT 24/M03 A2984 RMK A01 T02391026  RH  017%=      5-min Rain = 0
KAD1 191925Z 23019KT 24/M03 A2984 RMK A01 T02371025  RH  017%=      5-min Rain = 0
KAD1 191926Z 22020G25KT 24/M02 A2983 RMK A01 T02391024  RH  017%=      5-min Rain = 0
KAD1 191927Z 24019G25KT 24/M02 A2984 RMK A01 T02401023  RH  017%=      5-min Rain = 0
KAD1 191928Z 24021KT 24/M02 A2984 RMK A01 T02391024  RH  017%=      5-min Rain = 0
KAD1 191929Z 24021KT 24/M03 A2984 RMK A01 T02371025  RH  017%=      5-min Rain = 0
KAD1 191930Z 23018G24KT 24/M03 A2984 RMK A01 T02371025  RH  017%=      5-min Rain = 0
KAD1 191931Z 24022KT 24/M03 A2984 RMK A01 T02361026  RH  017%=      5-min Rain = 0
KAD1 191932Z 22019KT 23/M03 A2983 RMK A01 T02341026  RH  017%=      5-min Rain = 0
KAD1 191933Z 22024KT 24/M02 A2983 RMK A01 T02371023  RH  018%=      5-min Rain = 0
KAD1 191934Z 23022KT 24/M02 A2983 RMK A01 T02381024  RH  017%=      5-min Rain = 0
KAD1 191935Z 23022KT 24/M03 A2983 RMK A01 T02381026  RH  017%=      5-min Rain = 0
KAD1 191936Z 23018KT 24/M03 A2983 RMK A01 T02361027  RH  017%=      5-min Rain = 0
KAD1 191937Z 23019KT 24/M03 A2983 RMK A01 T02351026  RH  017%=      5-min Rain = 0
KAD1 191938Z 23019KT 24/M03 A2983 RMK A01 T02371025  RH  017%=      5-min Rain = 0
KAD1 191939Z 23019KT 24/M03 A2983 RMK A01 T02371026  RH  017%=      5-min Rain = 0
KAD1 191940Z 25020G25KT 24/M03 A2983 RMK A01 T02391025  RH  017%=      5-min Rain = 0
KAD1 191941Z 25017G22KT 24/M03 A2983 RMK A01 T02401025  RH  017%=      5-min Rain = 0
KAD1 191942Z 24017G22KT 24/M02 A2983 RMK A01 T02411024  RH  017%=      5-min Rain = 0
KAD1 191943Z 24016KT 24/M02 A2983 RMK A01 T02431023  RH  017%=      5-min Rain = 0
KAD1 191944Z 24016G22KT 25/M02 A2983 RMK A01 T02451023  RH  017%=      5-min Rain = 0
KAD1 191945Z 25016KT 25/M02 A2983 RMK A01 T02461023  RH  017%=      5-min Rain = 0
KAD1 191946Z 24017KT 25/M02 A2983 RMK A01 T02471024  RH  016%=      5-min Rain = 0
KAD1 191947Z 25016KT 25/M03 A2983 RMK A01 T02451025  RH  017%=      5-min Rain = 0
KAD1 191948Z 24021KT 24/M03 A2983 RMK A01 T02441026  RH  017%=      5-min Rain = 0
KAD1 191949Z 24017KT 24/M03 A2983 RMK A01 T02411027  RH  017%=      5-min Rain = 0
KAD1 191950Z 23019KT 24/M03 A2983 RMK A01 T02411026  RH  017%=      5-min Rain = 0
KAD1 191951Z 22021KT 24/M03 A2983 RMK A01 T02401027  RH  017%=      5-min Rain = 0
KAD1 191952Z 24023KT 24/M03 A2983 RMK A01 T02391028  RH  017%=      5-min Rain = 0
KAD1 191953Z 24019KT 24/M03 A2983 RMK A01 T02391027  RH  017%=      5-min Rain = 0
KAD1 191954Z 24017KT 24/M03 A2983 RMK A01 T02381027  RH  017%=      5-min Rain = 0
KAD1 191955Z 24019G24KT 24/M03 A2983 RMK A01 T02401026  RH  017%=      5-min Rain = 0
KAD1 191956Z 24017G24KT 24/M03 A2983 RMK A01 T02401027  RH  017%=      5-min Rain = 0
KAD1 191957Z 24018KT 24/M03 A2983 RMK A01 T02401026  RH  017%=      5-min Rain = 0
KAD1 191958Z 24013G18KT 24/M02 A2983 RMK A01 T02411024  RH  017%=      5-min Rain = 0
KAD1 191959Z 24019G25KT 24/M02 A2983 RMK A01 T02441024  RH  017%=      5-min Rain = 0
KAD1 192000Z 24021KT 24/M03 A2983 RMK A01 T02441028  RH  016%=      5-min Rain = 0
KAD1 192001Z 25017KT 24/M03 A2982 RMK A01 T02421028  RH  016%=      5-min Rain = 0
KAD1 192002Z 24017KT 24/M03 A2982 RMK A01 T02411028  RH  017%=      5-min Rain = 0
KAD1 192003Z 25017KT 24/M03 A2982 RMK A01 T02411026  RH  017%=      5-min Rain = 0
KAD1 192004Z 25018KT 24/M03 A2982 RMK A01 T02421026  RH  017%=      5-min Rain = 0
KAD1 192005Z 24016KT 24/M03 A2982 RMK A01 T02401027  RH  017%=      5-min Rain = 0
KAD1 192006Z 25015KT 24/M02 A2982 RMK A01 T02401024  RH  017%=      5-min Rain = 0
KAD1 192007Z 24018G26KT 24/M02 A2982 RMK A01 T02431023  RH  017%=      5-min Rain = 0
KAD1 192008Z 24020KT 25/M03 A2982 RMK A01 T02451025  RH  017%=      5-min Rain = 0
KAD1 192009Z 25018KT 24/M03 A2982 RMK A01 T02431026  RH  017%=      5-min Rain = 0
KAD1 192010Z 23017KT 24/M03 A2982 RMK A01 T02421027  RH  017%=      5-min Rain = 0
KAD1 192011Z 23016KT 24/M03 A2982 RMK A01 T02421025  RH  017%=      5-min Rain = 0
KAD1 192012Z 23016KT 24/M03 A2982 RMK A01 T02441026  RH  016%=      5-min Rain = 0
KAD1 192013Z 23015KT 24/M03 A2982 RMK A01 T02441027  RH  016%=      5-min Rain = 0
KAD1 192014Z 23019G24KT 24/M03 A2982 RMK A01 T02431027  RH  017%=      5-min Rain = 0
KAD1 192015Z 23018KT 24/M03 A2982 RMK A01 T02421027  RH  017%=      5-min Rain = 0
KAD1 192016Z 23017KT 24/M03 A2982 RMK A01 T02431026  RH  017%=      5-min Rain = 0
KAD1 192017Z 23021KT 25/M03 A2982 RMK A01 T02451026  RH  016%=      5-min Rain = 0
KAD1 192018Z 24017G22KT 24/M03 A2982 RMK A01 T02441028  RH  016%=      5-min Rain = 0
KAD1 192019Z 23014KT 24/M03 A2982 RMK A01 T02431027  RH  017%=      5-min Rain = 0
KAD1 192020Z 23015KT 24/M03 A2982 RMK A01 T02441026  RH  016%=      5-min Rain = 0
KAD1 192021Z 24016KT 25/M03 A2982 RMK A01 T02451027  RH  016%=      5-min Rain = 0
KAD1 192022Z 22019KT 24/M03 A2981 RMK A01 T02441028  RH  016%=      5-min Rain = 0
KAD1 192023Z 22019G24KT 25/M03 A2981 RMK A01 T02451027  RH  016%=      5-min Rain = 0
KAD1 192024Z 23021KT 25/M03 A2981 RMK A01 T02451029  RH  016%=      5-min Rain = 0
KAD1 192025Z 23015KT 24/M03 A2981 RMK A01 T02441029  RH  016%=      5-min Rain = 0
KAD1 192026Z 24014G19KT 25/M03 A2981 RMK A01 T02451028  RH  016%=      5-min Rain = 0
KAD1 192027Z 24014KT 25/M03 A2981 RMK A01 T02471027  RH  016%=      5-min Rain = 0
KAD1 192028Z 23017G22KT 25/M03 A2981 RMK A01 T02481027  RH  016%=      5-min Rain = 0
KAD1 192029Z 22018KT 25/M03 A2981 RMK A01 T02471029  RH  016%=      5-min Rain = 0
KAD1 192030Z 22017G22KT 25/M03 A2981 RMK A01 T02451028  RH  016%=      5-min Rain = 0
KAD1 192031Z 22019KT 24/M03 A2981 RMK A01 T02441030  RH  016%=      5-min Rain = 0
KAD1 192032Z 22019KT 24/M03 A2981 RMK A01 T02411031  RH  016%=      5-min Rain = 0
KAD1 192033Z 22017KT 24/M03 A2981 RMK A01 T02411030  RH  016%=      5-min Rain = 0
KAD1 192034Z 21018KT 24/M03 A298 RMK A01 T02401030  RH  016%=      5-min Rain = 0
KAD1 192035Z 22021G27KT 24/M03 A298 RMK A01 T02421028  RH  017%=      5-min Rain = 0
KAD1 192036Z 23022KT 24/M03 A2981 RMK A01 T02431029  RH  016%=      5-min Rain = 0
KAD1 192037Z 24019KT 24/M03 A2981 RMK A01 T02421030  RH  016%=      5-min Rain = 0
KAD1 192038Z 24017KT 24/M03 A2981 RMK A01 T02421029  RH  016%=      5-min Rain = 0
KAD1 192039Z 23021KT 24/M03 A2981 RMK A01 T02431029  RH  016%=      5-min Rain = 0
KAD1 192040Z 23020KT 24/M03 A2981 RMK A01 T02421032  RH  016%=      5-min Rain = 0
KAD1 192041Z 23016KT 24/M03 A2981 RMK A01 T02401032  RH  016%=      5-min Rain = 0
KAD1 192042Z 22016KT 24/M03 A2981 RMK A01 T02411030  RH  016%=      5-min Rain = 0
KAD1 192043Z 23019KT 24/M03 A2981 RMK A01 T02431029  RH  016%=      5-min Rain = 0
KAD1 192044Z 23019KT 24/M03 A2981 RMK A01 T02441031  RH  016%=      5-min Rain = 0
KAD1 192045Z 24016KT 24/M03 A2981 RMK A01 T02441030  RH  016%=      5-min Rain = 0
KAD1 192046Z 24022KT 25/M03 A2981 RMK A01 T02451030  RH  016%=      5-min Rain = 0
KAD1 192047Z 23023KT 24/M03 A2981 RMK A01 T02431034  RH  016%=      5-min Rain = 0
KAD1 192048Z 23019KT 24/M03 A2981 RMK A01 T02401034  RH  016%=      5-min Rain = 0
KAD1 192049Z 22019KT 24/M03 A298 RMK A01 T02391034  RH  016%=      5-min Rain = 0
KAD1 192050Z 23019G24KT 24/M03 A2981 RMK A01 T02391033  RH  016%=      5-min Rain = 0
KAD1 192051Z 23020KT 24/M03 A2981 RMK A01 T02401034  RH  016%=      5-min Rain = 0
KAD1 192052Z 23015KT 24/M03 A2981 RMK A01 T02401033  RH  016%=      5-min Rain = 0
KAD1 192053Z 23017KT 24/M03 A298 RMK A01 T02411032  RH  016%=      5-min Rain = 0
KAD1 192054Z 24017KT 24/M03 A2981 RMK A01 T02431032  RH  016%=      5-min Rain = 0
KAD1 192055Z 25016G21KT 24/M03 A2981 RMK A01 T02431032  RH  016%=      5-min Rain = 0
KAD1 192056Z 24020KT 24/M03 A2981 RMK A01 T02421032  RH  016%=      5-min Rain = 0
KAD1 192057Z 23018KT 24/M03 A298 RMK A01 T02411032  RH  016%=      5-min Rain = 0
KAD1 192058Z 23017KT 24/M03 A298 RMK A01 T02411032  RH  016%=      5-min Rain = 0
KAD1 192059Z 22019KT 24/M03 A298 RMK A01 T02421033  RH  016%=      5-min Rain = 0
KAD1 192100Z 23016KT 24/M03 A298 RMK A01 T02411034  RH  016%=      5-min Rain = 0
KAD1 192101Z 22019KT 24/M03 A298 RMK A01 T02401033  RH  016%=      5-min Rain = 0
KAD1 192102Z 22018KT 24/M03 A298 RMK A01 T02401032  RH  016%=      5-min Rain = 0
KAD1 192103Z 24018KT 24/M03 A298 RMK A01 T02411031  RH  016%=      5-min Rain = 0
KAD1 192104Z 24019KT 24/M03 A298 RMK A01 T02421032  RH  016%=      5-min Rain = 0
KAD1 192105Z 24015KT 24/M03 A298 RMK A01 T02421032  RH  016%=      5-min Rain = 0
KAD1 192106Z 23014G19KT 24/M03 A298 RMK A01 T02421031  RH  016%=      5-min Rain = 0
KAD1 192107Z 23017KT 24/M03 A298 RMK A01 T02431033  RH  016%=      5-min Rain = 0
KAD1 192108Z 22018KT 24/M03 A298 RMK A01 T02421034  RH  016%=      5-min Rain = 0
KAD1 192109Z 22017KT 24/M03 A298 RMK A01 T02411033  RH  016%=      5-min Rain = 0
KAD1 192110Z 23017KT 24/M03 A298 RMK A01 T02421033  RH  016%=      5-min Rain = 0
KAD1 192111Z 24019G25KT 24/M03 A2981 RMK A01 T02421033  RH  016%=      5-min Rain = 0
KAD1 192112Z 23019KT 24/M03 A2981 RMK A01 T02421034  RH  016%=      5-min Rain = 0
KAD1 192113Z 23020KT 24/M04 A2981 RMK A01 T02411035  RH  016%=      5-min Rain = 0
KAD1 192114Z 23017KT 24/M04 A298 RMK A01 T02401035  RH  016%=      5-min Rain = 0
KAD1 192115Z 24018KT 24/M04 A298 RMK A01 T02401035  RH  016%=      5-min Rain = 0
KAD1 192116Z 24016KT 24/M04 A298 RMK A01 T02401035  RH  016%=      5-min Rain = 0
KAD1 192117Z 24017G25KT 24/M04 A298 RMK A01 T02401035  RH  016%=      5-min Rain = 0
KAD1 192118Z 23022KT 24/M04 A298 RMK A01 T02411036  RH  016%=      5-min Rain = 0
KAD1 192119Z 23020KT 24/M04 A298 RMK A01 T02411037  RH  016%=      5-min Rain = 0
KAD1 192120Z 23017KT 24/M04 A298 RMK A01 T02401037  RH  016%=      5-min Rain = 0
KAD1 192121Z 24017KT 24/M04 A298 RMK A01 T02401036  RH  016%=      5-min Rain = 0
KAD1 192122Z 23015KT 24/M04 A298 RMK A01 T02401036  RH  016%=      5-min Rain = 0
KAD1 192123Z 23014KT 24/M04 A298 RMK A01 T02421035  RH  016%=      5-min Rain = 0
KAD1 192124Z 23014KT 24/M04 A298 RMK A01 T02421036  RH  016%=      5-min Rain = 0
KAD1 192125Z 23014KT 24/M04 A298 RMK A01 T02421035  RH  016%=      5-min Rain = 0
KAD1 192126Z 23013KT 24/M03 A298 RMK A01 T02421034  RH  016%=      5-min Rain = 0
KAD1 192127Z 24014KT 24/M03 A298 RMK A01 T02421034  RH  016%=      5-min Rain = 0
KAD1 192128Z 23013KT 24/M03 A298 RMK A01 T02431034  RH  016%=      5-min Rain = 0
KAD1 192129Z 24014G19KT 24/M03 A298 RMK A01 T02441033  RH  016%=      5-min Rain = 0
KAD1 192130Z 23017KT 24/M04 A298 RMK A01 T02441035  RH  015%=      5-min Rain = 0
KAD1 192131Z 23015KT 24/M04 A298 RMK A01 T02411038  RH  015%=      5-min Rain = 0
KAD1 192132Z 23016KT 24/M04 A298 RMK A01 T02401038  RH  015%=      5-min Rain = 0
KAD1 192133Z 23015KT 24/M04 A298 RMK A01 T02391039  RH  015%=      5-min Rain = 0
KAD1 192134Z 23015KT 24/M04 A298 RMK A01 T02381038  RH  016%=      5-min Rain = 0
KAD1 192135Z 22017KT 24/M04 A298 RMK A01 T02381036  RH  016%=      5-min Rain = 0
KAD1 192136Z 22017KT 24/M04 A298 RMK A01 T02381037  RH  016%=      5-min Rain = 0
KAD1 192137Z 22014KT 24/M04 A298 RMK A01 T02381037  RH  016%=      5-min Rain = 0
KAD1 192138Z 23015KT 24/M04 A298 RMK A01 T02381036  RH  016%=      5-min Rain = 0
KAD1 192139Z 22015KT 24/M04 A298 RMK A01 T02381036  RH  016%=      5-min Rain = 0
KAD1 192140Z 23014KT 24/M04 A298 RMK A01 T02371036  RH  016%=      5-min Rain = 0
KAD1 192141Z 23010KT 24/M04 A298 RMK A01 T02371036  RH  016%=      5-min Rain = 0
KAD1 192142Z 24013KT 24/M04 A298 RMK A01 T02371035  RH  016%=      5-min Rain = 0
KAD1 192143Z 25014KT 24/M04 A298 RMK A01 T02371036  RH  016%=      5-min Rain = 0
KAD1 192144Z 24012KT 24/M04 A298 RMK A01 T02371037  RH  016%=      5-min Rain = 0
KAD1 192145Z 24011KT 24/M03 A298 RMK A01 T02391034  RH  016%=      5-min Rain = 0
KAD1 192146Z 23012KT 24/M03 A298 RMK A01 T02411034  RH  016%=      5-min Rain = 0
KAD1 192147Z 23013KT 24/M04 A298 RMK A01 T02411035  RH  016%=      5-min Rain = 0
KAD1 192148Z 23014KT 24/M04 A298 RMK A01 T02411035  RH  016%=      5-min Rain = 0
KAD1 192149Z 23012KT 24/M04 A298 RMK A01 T02411035  RH  016%=      5-min Rain = 0
KAD1 192150Z 22011KT 24/M03 A298 RMK A01 T02421033  RH  016%=      5-min Rain = 0
KAD1 192151Z 23012KT 24/M03 A298 RMK A01 T02431034  RH  016%=      5-min Rain = 0
KAD1 192152Z 25012KT 24/M03 A298 RMK A01 T02441034  RH  016%=      5-min Rain = 0
KAD1 192153Z 24014KT 24/M04 A298 RMK A01 T02441035  RH  015%=      5-min Rain = 0
KAD1 192154Z 24016KT 24/M04 A298 RMK A01 T02431035  RH  016%=      5-min Rain = 0
KAD1 192155Z 24015KT 24/M04 A298 RMK A01 T02421036  RH  016%=      5-min Rain = 0
KAD1 192156Z 23013KT 24/M04 A298 RMK A01 T02411036  RH  016%=      5-min Rain = 0
KAD1 192157Z 24015KT 24/M04 A298 RMK A01 T02411036  RH  016%=      5-min Rain = 0
KAD1 192158Z 23013KT 24/M04 A298 RMK A01 T02411035  RH  016%=      5-min Rain = 0
KAD1 192159Z 23016KT 24/M04 A298 RMK A01 T02421035  RH  016%=      5-min Rain = 0
KAD1 192200Z 23013KT 24/M04 A298 RMK A01 T02411037  RH  016%=      5-min Rain = 0
KAD1 192201Z 23015KT 24/M04 A298 RMK A01 T02411035  RH  016%=      5-min Rain = 0
KAD1 192202Z 24014KT 24/M04 A298 RMK A01 T02401037  RH  016%=      5-min Rain = 0
KAD1 192203Z 24012KT 24/M04 A298 RMK A01 T02401037  RH  016%=      5-min Rain = 0
KAD1 192204Z 23009KT 24/M04 A298 RMK A01 T02401035  RH  016%=      5-min Rain = 0
KAD1 192205Z 23013KT 24/M04 A298 RMK A01 T02401035  RH  016%=      5-min Rain = 0
KAD1 192206Z 23017KT 24/M04 A298 RMK A01 T02401036  RH  016%=      5-min Rain = 0
KAD1 192207Z 22015KT 24/M04 A2979 RMK A01 T02391036  RH  016%=      5-min Rain = 0
KAD1 192208Z 22014KT 24/M04 A298 RMK A01 T02391035  RH  016%=      5-min Rain = 0
KAD1 192209Z 22014KT 24/M03 A2979 RMK A01 T02381034  RH  016%=      5-min Rain = 0
KAD1 192210Z 22013KT 24/M03 A2979 RMK A01 T02381033  RH  016%=      5-min Rain = 0
KAD1 192211Z 21013KT 24/M03 A2979 RMK A01 T02381033  RH  016%=      5-min Rain = 0
KAD1 192212Z 21015G20KT 24/M03 A2979 RMK A01 T02391033  RH  016%=      5-min Rain = 0
KAD1 192213Z 21016KT 24/M03 A2979 RMK A01 T02391034  RH  016%=      5-min Rain = 0
KAD1 192214Z 21014KT 24/M03 A2979 RMK A01 T02391033  RH  016%=      5-min Rain = 0
KAD1 192215Z 23014KT 24/M03 A2979 RMK A01 T02381032  RH  016%=      5-min Rain = 0
KAD1 192216Z 23018KT 24/M03 A2979 RMK A01 T02391032  RH  016%=      5-min Rain = 0
KAD1 192217Z 22015KT 24/M03 A2979 RMK A01 T02381034  RH  016%=      5-min Rain = 0
KAD1 192218Z 22013KT 24/M03 A2979 RMK A01 T02371034  RH  016%=      5-min Rain = 0
KAD1 192219Z 22014KT 24/M03 A2979 RMK A01 T02371032  RH  016%=      5-min Rain = 0
KAD1 192220Z 21014KT 24/M03 A2979 RMK A01 T02371032  RH  016%=      5-min Rain = 0
KAD1 192221Z 21016KT 24/M03 A2979 RMK A01 T02371032  RH  016%=      5-min Rain = 0
KAD1 192222Z 22018KT 24/M03 A2979 RMK A01 T02361033  RH  016%=      5-min Rain = 0
KAD1 192223Z 22016KT 24/M03 A2979 RMK A01 T02361033  RH  017%=      5-min Rain = 0
KAD1 192224Z 22016KT 24/M03 A2979 RMK A01 T02351033  RH  017%=      5-min Rain = 0
KAD1 192225Z 22016KT 24/M03 A2979 RMK A01 T02351033  RH  017%=      5-min Rain = 0
KAD1 192226Z 22015KT 24/M03 A2979 RMK A01 T02351033  RH  017%=      5-min Rain = 0
KAD1 192227Z 22015KT 24/M03 A2979 RMK A01 T02351032  RH  017%=      5-min Rain = 0
KAD1 192228Z 22014KT 24/M03 A2979 RMK A01 T02351032  RH  017%=      5-min Rain = 0
KAD1 192229Z 21013KT 24/M03 A2979 RMK A01 T02351032  RH  017%=      5-min Rain = 0
KAD1 192230Z 21016KT 24/M03 A2979 RMK A01 T02351031  RH  017%=      5-min Rain = 0
KAD1 192231Z 22014KT 23/M03 A2979 RMK A01 T02341033  RH  017%=      5-min Rain = 0
KAD1 192232Z 22014KT 23/M03 A2979 RMK A01 T02341032  RH  017%=      5-min Rain = 0
KAD1 192233Z 22014KT 23/M03 A2979 RMK A01 T02341032  RH  017%=      5-min Rain = 0
KAD1 192234Z 22015KT 23/M03 A2979 RMK A01 T02341032  RH  017%=      5-min Rain = 0
KAD1 192235Z 21014KT 23/M03 A2979 RMK A01 T02331033  RH  017%=      5-min Rain = 0
KAD1 192236Z 21013KT 23/M03 A2979 RMK A01 T02331033  RH  017%=      5-min Rain = 0
KAD1 192237Z 21013KT 23/M03 A2979 RMK A01 T02331032  RH  017%=      5-min Rain = 0
KAD1 192238Z 22012KT 23/M03 A2979 RMK A01 T02321032  RH  017%=      5-min Rain = 0
KAD1 192239Z 22010KT 23/M03 A2979 RMK A01 T02321031  RH  017%=      5-min Rain = 0
KAD1 192240Z 22011KT 23/M03 A2979 RMK A01 T02321030  RH  017%=      5-min Rain = 0
KAD1 192241Z 21011KT 23/M03 A2979 RMK A01 T02321031  RH  017%=      5-min Rain = 0
KAD1 192242Z 21013KT 23/M03 A2979 RMK A01 T02311030  RH  017%=      5-min Rain = 0
KAD1 192243Z 22013KT 23/M03 A2979 RMK A01 T02311031  RH  017%=      5-min Rain = 0
KAD1 192244Z 22014KT 23/M03 A2979 RMK A01 T02311031  RH  017%=      5-min Rain = 0
KAD1 192245Z 21011KT 23/M03 A2979 RMK A01 T02311031  RH  017%=      5-min Rain = 0
KAD1 192246Z 21012KT 23/M03 A2979 RMK A01 T02301031  RH  017%=      5-min Rain = 0
KAD1 192247Z 21012KT 23/M03 A2979 RMK A01 T02301031  RH  017%=      5-min Rain = 0
KAD1 192248Z 21012KT 23/M03 A2979 RMK A01 T02291031  RH  017%=      5-min Rain = 0
KAD1 192249Z 21012KT 23/M03 A2979 RMK A01 T02281031  RH  018%=      5-min Rain = 0
KAD1 192250Z 21012KT 23/M03 A2979 RMK A01 T02271031  RH  018%=      5-min Rain = 0
KAD1 192251Z 22012KT 23/M03 A2979 RMK A01 T02271031  RH  018%=      5-min Rain = 0
KAD1 192252Z 22010KT 23/M03 A2979 RMK A01 T02261031  RH  018%=      5-min Rain = 0
KAD1 192253Z 21010KT 23/M03 A2979 RMK A01 T02251031  RH  018%=      5-min Rain = 0
KAD1 192254Z 21010KT 22/M03 A2979 RMK A01 T02241030  RH  018%=      5-min Rain = 0
KAD1 192255Z 21010KT 22/M03 A2978 RMK A01 T02231030  RH  018%=      5-min Rain = 0
KAD1 192256Z 21010KT 22/M03 A2978 RMK A01 T02221030  RH  018%=      5-min Rain = 0
KAD1 192257Z 21010KT 22/M03 A2978 RMK A01 T02211031  RH  018%=      5-min Rain = 0
KAD1 192258Z 21010KT 22/M03 A2978 RMK A01 T02201031  RH  018%=      5-min Rain = 0
KAD1 192259Z 21010KT 22/M03 A2978 RMK A01 T02191031  RH  018%=      5-min Rain = 0
KAD1 192300Z 21010KT 22/M03 A2978 RMK A01 T02191031  RH  019%=      5-min Rain = 0
KAD1 192301Z 21010KT 22/M03 A2978 RMK A01 T02191031  RH  019%=      5-min Rain = 0
KAD1 192302Z 21010KT 22/M03 A2978 RMK A01 T02181031  RH  019%=      5-min Rain = 0
KAD1 192303Z 21010KT 22/M03 A2978 RMK A01 T02171031  RH  019%=      5-min Rain = 0
KAD1 192304Z 21011KT 22/M03 A2978 RMK A01 T02161031  RH  019%=      5-min Rain = 0
KAD1 192305Z 21011KT 22/M03 A2978 RMK A01 T02171031  RH  019%=      5-min Rain = 0
KAD1 192306Z 21011KT 22/M03 A2978 RMK A01 T02161031  RH  019%=      5-min Rain = 0
KAD1 192307Z 22011KT 22/M03 A2978 RMK A01 T02161031  RH  019%=      5-min Rain = 0
KAD1 192308Z 21011KT 22/M03 A2979 RMK A01 T02151031  RH  019%=      5-min Rain = 0
KAD1 192309Z 22010KT 21/M03 A2979 RMK A01 T02141031  RH  019%=      5-min Rain = 0
KAD1 192310Z 22010KT 21/M03 A2979 RMK A01 T02131031  RH  019%=      5-min Rain = 0
KAD1 192311Z 21010KT 21/M03 A2979 RMK A01 T02121031  RH  019%=      5-min Rain = 0
KAD1 192312Z 21010KT 21/M03 A2979 RMK A01 T02111031  RH  019%=      5-min Rain = 0
KAD1 192313Z 21010KT 21/M03 A2979 RMK A01 T02101030  RH  020%=      5-min Rain = 0
KAD1 192314Z 21011KT 21/M03 A2979 RMK A01 T02091030  RH  020%=      5-min Rain = 0
KAD1 192315Z 21011KT 21/M03 A2979 RMK A01 T02081030  RH  020%=      5-min Rain = 0
KAD1 192316Z 20010KT 21/M03 A2979 RMK A01 T02061030  RH  020%=      5-min Rain = 0
KAD1 192317Z 20010KT 20/M03 A2979 RMK A01 T02041030  RH  020%=      5-min Rain = 0
KAD1 192318Z 20010KT 20/M03 A2979 RMK A01 T02031029  RH  021%=      5-min Rain = 0
KAD1 192319Z 20010KT 20/M03 A2979 RMK A01 T02011030  RH  021%=      5-min Rain = 0
KAD1 192320Z 20011KT 20/M03 A2979 RMK A01 T02001029  RH  021%=      5-min Rain = 0
KAD1 192321Z 20010KT 20/M03 A2979 RMK A01 T01991029  RH  021%=      5-min Rain = 0
KAD1 192322Z 20011KT 20/M03 A2979 RMK A01 T01981029  RH  022%=      5-min Rain = 0
KAD1 192323Z 20011KT 20/M03 A2979 RMK A01 T01961028  RH  022%=      5-min Rain = 0
KAD1 192324Z 20011KT 20/M03 A2979 RMK A01 T01951028  RH  022%=      5-min Rain = 0
KAD1 192325Z 20011KT 19/M03 A2979 RMK A01 T01931028  RH  022%=      5-min Rain = 0
KAD1 192326Z 20011KT 19/M03 A2979 RMK A01 T01911028  RH  022%=      5-min Rain = 0
KAD1 192327Z 20011KT 19/M03 A2979 RMK A01 T01901028  RH  023%=      5-min Rain = 0
KAD1 192328Z 20011KT 19/M03 A2979 RMK A01 T01891028  RH  023%=      5-min Rain = 0
KAD1 192329Z 20011KT 19/M03 A2979 RMK A01 T01871028  RH  023%=      5-min Rain = 0
KAD1 192330Z 20011KT 19/M03 A2979 RMK A01 T01861027  RH  023%=      5-min Rain = 0
KAD1 192331Z 20012KT 19/M03 A2979 RMK A01 T01851028  RH  023%=      5-min Rain = 0
KAD1 192332Z 20012KT 19/M03 A2979 RMK A01 T01851027  RH  024%=      5-min Rain = 0
KAD1 192333Z 20012KT 19/M03 A2979 RMK A01 T01851027  RH  024%=      5-min Rain = 0
KAD1 192334Z 20012KT 18/M03 A2979 RMK A01 T01841028  RH  024%=      5-min Rain = 0
KAD1 192335Z 20012KT 18/M03 A2979 RMK A01 T01841027  RH  024%=      5-min Rain = 0
KAD1 192336Z 20012KT 18/M03 A2979 RMK A01 T01831028  RH  024%=      5-min Rain = 0
KAD1 192337Z 20012KT 18/M03 A2979 RMK A01 T01831028  RH  024%=      5-min Rain = 0
KAD1 192338Z 20012KT 18/M03 A2979 RMK A01 T01821028  RH  024%=      5-min Rain = 0
KAD1 192339Z 20013KT 18/M03 A2979 RMK A01 T01821028  RH  024%=      5-min Rain = 0
KAD1 192340Z 20012KT 18/M03 A2979 RMK A01 T01821028  RH  024%=      5-min Rain = 0
KAD1 192341Z 20012KT 18/M03 A2979 RMK A01 T01821028  RH  024%=      5-min Rain = 0
KAD1 192342Z 20011KT 18/M03 A2979 RMK A01 T01801028  RH  024%=      5-min Rain = 0
KAD1 192343Z 20012KT 18/M03 A2979 RMK A01 T01791028  RH  024%=      5-min Rain = 0
KAD1 192344Z 20011KT 18/M03 A2979 RMK A01 T01781029  RH  024%=      5-min Rain = 0
KAD1 192345Z 20011KT 18/M03 A2979 RMK A01 T01781028  RH  024%=      5-min Rain = 0
KAD1 192346Z 20011KT 18/M03 A2979 RMK A01 T01771028  RH  024%=      5-min Rain = 0
KAD1 192347Z 19011KT 18/M03 A2979 RMK A01 T01761029  RH  025%=      5-min Rain = 0
KAD1 192348Z 19012KT 18/M03 A2979 RMK A01 T01751029  RH  025%=      5-min Rain = 0
KAD1 192349Z 19011KT 17/M03 A2978 RMK A01 T01721030  RH  025%=      5-min Rain = 0
KAD1 192350Z 19011KT 17/M03 A2978 RMK A01 T01701030  RH  025%=      5-min Rain = 0
KAD1 192351Z 19011KT 17/M03 A2978 RMK A01 T01681030  RH  026%=      5-min Rain = 0
KAD1 192352Z 19011KT 17/M03 A2978 RMK A01 T01661030  RH  026%=      5-min Rain = 0
KAD1 192353Z 18010KT 16/M03 A2979 RMK A01 T01631030  RH  026%=      5-min Rain = 0
KAD1 192354Z 18010KT 16/M03 A2979 RMK A01 T01611030  RH  027%=      5-min Rain = 0
KAD1 192355Z 18010KT 16/M03 A2979 RMK A01 T01581031  RH  027%=      5-min Rain = 0
KAD1 192356Z 18010KT 16/M03 A2979 RMK A01 T01551032  RH  027%=      5-min Rain = 0
KAD1 192357Z 18010KT 15/M03 A2979 RMK A01 T01531032  RH  028%=      5-min Rain = 0
KAD1 192358Z 18011KT 15/M03 A2979 RMK A01 T01511032  RH  028%=      5-min Rain = 0
KAD1 192359Z 18011KT 15/M03 A2979 RMK A01 T01501032  RH  028%=      5-min Rain = 0
KAD1 200000Z 18011KT 15/M03 A2979 RMK A01 T01491032  RH  029%=      5-min Rain = 0
KAD1 200001Z 18011KT 15/M03 A2979 RMK A01 T01491032  RH  029%=      5-min Rain = 0
KAD1 200002Z 18011KT 15/M03 A2979 RMK A01 T01481032  RH  029%=      5-min Rain = 0
KAD1 200003Z 18011KT 15/M03 A2979 RMK A01 T01481032  RH  029%=      5-min Rain = 0
KAD1 200004Z 18011KT 15/M03 A2979 RMK A01 T01471032  RH  029%=      5-min Rain = 0
KAD1 200005Z 18011KT 15/M03 A2979 RMK A01 T01461033  RH  029%=      5-min Rain = 0
KAD1 200006Z 18011KT 15/M03 A2979 RMK A01 T01451032  RH  029%=      5-min Rain = 0
KAD1 200007Z 18011KT 14/M03 A2979 RMK A01 T01441033  RH  029%=      5-min Rain = 0
KAD1 200008Z 18011KT 14/M03 A2979 RMK A01 T01431033  RH  029%=      5-min Rain = 0
KAD1 200009Z 18011KT 14/M03 A2979 RMK A01 T01421033  RH  030%=      5-min Rain = 0
KAD1 200010Z 19011KT 14/M03 A2979 RMK A01 T01421033  RH  030%=      5-min Rain = 0
KAD1 200011Z 18011KT 14/M03 A2979 RMK A01 T01411033  RH  030%=      5-min Rain = 0
KAD1 200012Z 18011KT 14/M03 A2979 RMK A01 T01401033  RH  030%=      5-min Rain = 0
KAD1 200013Z 19012KT 14/M03 A2979 RMK A01 T01391033  RH  030%=      5-min Rain = 0
KAD1 200014Z 19012KT 14/M03 A2979 RMK A01 T01391032  RH  031%=      5-min Rain = 0
KAD1 200015Z 19013KT 14/M03 A2979 RMK A01 T01381032  RH  031%=      5-min Rain = 0
KAD1 200016Z 19013KT 14/M03 A2979 RMK A01 T01391031  RH  031%=      5-min Rain = 0
KAD1 200017Z 19013KT 14/M03 A2979 RMK A01 T01401030  RH  031%=      5-min Rain = 0
KAD1 200018Z 19014KT 14/M03 A2979 RMK A01 T01421029  RH  030%=      5-min Rain = 0
KAD1 200019Z 19015KT 14/M03 A2979 RMK A01 T01441029  RH  030%=      5-min Rain = 0
KAD1 200020Z 19014KT 15/M03 A2979 RMK A01 T01471029  RH  030%=      5-min Rain = 0
KAD1 200021Z 20015KT 15/M03 A2979 RMK A01 T01491029  RH  029%=      5-min Rain = 0
KAD1 200022Z 20014KT 15/M03 A2979 RMK A01 T01511029  RH  029%=      5-min Rain = 0
KAD1 200023Z 20014KT 15/M03 A2979 RMK A01 T01521029  RH  029%=      5-min Rain = 0
KAD1 200024Z 20014KT 15/M03 A2979 RMK A01 T01531029  RH  028%=      5-min Rain = 0
KAD1 200025Z 19014KT 15/M03 A2979 RMK A01 T01531030  RH  028%=      5-min Rain = 0
KAD1 200026Z 20014KT 15/M03 A2979 RMK A01 T01531029  RH  028%=      5-min Rain = 0
KAD1 200027Z 20014KT 15/M03 A2979 RMK A01 T01531029  RH  028%=      5-min Rain = 0
KAD1 200028Z 19015KT 15/M03 A2979 RMK A01 T01521030  RH  028%=      5-min Rain = 0
KAD1 200029Z 19015KT 15/M03 A2979 RMK A01 T01521029  RH  029%=      5-min Rain = 0
KAD1 200030Z 19016KT 15/M03 A2979 RMK A01 T01521029  RH  029%=      5-min Rain = 0
KAD1 200031Z 19015KT 15/M03 A2979 RMK A01 T01511029  RH  029%=      5-min Rain = 0
KAD1 200032Z 19016KT 15/M03 A2979 RMK A01 T01501029  RH  029%=      5-min Rain = 0
KAD1 200033Z 20015KT 15/M03 A2979 RMK A01 T01501030  RH  029%=      5-min Rain = 0
KAD1 200034Z 20015KT 15/M03 A2979 RMK A01 T01501030  RH  029%=      5-min Rain = 0
KAD1 200035Z 20015KT 15/M03 A2979 RMK A01 T01501029  RH  029%=      5-min Rain = 0
KAD1 200036Z 20015KT 15/M03 A2979 RMK A01 T01501030  RH  029%=      5-min Rain = 0
KAD1 200037Z 20015KT 15/M03 A2979 RMK A01 T01491030  RH  029%=      5-min Rain = 0
KAD1 200038Z 20016KT 15/M03 A2979 RMK A01 T01481030  RH  029%=      5-min Rain = 0
KAD1 200039Z 20016KT 15/M03 A2979 RMK A01 T01491030  RH  029%=      5-min Rain = 0
KAD1 200040Z 19016KT 15/M03 A2979 RMK A01 T01491030  RH  029%=      5-min Rain = 0
KAD1 200041Z 20015KT 15/M03 A2979 RMK A01 T01491030  RH  029%=      5-min Rain = 0
KAD1 200042Z 20015KT 15/M03 A2979 RMK A01 T01491029  RH  029%=      5-min Rain = 0
KAD1 200043Z 20015KT 15/M03 A2979 RMK A01 T01491029  RH  029%=      5-min Rain = 0
KAD1 200044Z 20015KT 15/M03 A2979 RMK A01 T01491029  RH  029%=      5-min Rain = 0
KAD1 200045Z 20016KT 15/M03 A2979 RMK A01 T01491029  RH  029%=      5-min Rain = 0
KAD1 200046Z 20016KT 15/M03 A2979 RMK A01 T01491029  RH  029%=      5-min Rain = 0
KAD1 200047Z 19015KT 15/M03 A2979 RMK A01 T01491029  RH  029%=      5-min Rain = 0
KAD1 200048Z 20016KT 15/M03 A2979 RMK A01 T01501029  RH  029%=      5-min Rain = 0
KAD1 200049Z 20015KT 15/M03 A2979 RMK A01 T01511029  RH  029%=      5-min Rain = 0
KAD1 200050Z 20015KT 15/M03 A2979 RMK A01 T01511028  RH  029%=      5-min Rain = 0
KAD1 200051Z 20016KT 15/M03 A2979 RMK A01 T01521028  RH  029%=      5-min Rain = 0
KAD1 200052Z 20016KT 15/M03 A2979 RMK A01 T01521028  RH  029%=      5-min Rain = 0
KAD1 200053Z 20016KT 15/M03 A2979 RMK A01 T01521028  RH  029%=      5-min Rain = 0
KAD1 200054Z 20017KT 15/M03 A2979 RMK A01 T01521028  RH  029%=      5-min Rain = 0
KAD1 200055Z 20016KT 15/M03 A2979 RMK A01 T01521028  RH  029%=      5-min Rain = 0
KAD1 200056Z 20016KT 15/M03 A2979 RMK A01 T01521028  RH  029%=      5-min Rain = 0
KAD1 200057Z 20016KT 15/M03 A2979 RMK A01 T01521028  RH  029%=      5-min Rain = 0
KAD1 200058Z 20015KT 15/M03 A2979 RMK A01 T01511029  RH  029%=      5-min Rain = 0
KAD1 200059Z 20016KT 15/M03 A2979 RMK A01 T01491029  RH  029%=      5-min Rain = 0
KAD1 200100Z 20016KT 15/M03 A2979 RMK A01 T01481029  RH  029%=      5-min Rain = 0
KAD1 200101Z 20015KT 15/M03 A2979 RMK A01 T01461029  RH  030%=      5-min Rain = 0
KAD1 200102Z 20015KT 15/M03 A2979 RMK A01 T01451029  RH  030%=      5-min Rain = 0
KAD1 200103Z 19016KT 14/M03 A2979 RMK A01 T01441029  RH  030%=      5-min Rain = 0
KAD1 200104Z 19016KT 14/M03 A2979 RMK A01 T01441029  RH  030%=      5-min Rain = 0
KAD1 200105Z 19015KT 14/M03 A2979 RMK A01 T01431029  RH  030%=      5-min Rain = 0
KAD1 200106Z 19014KT 14/M03 A2979 RMK A01 T01421029  RH  031%=      5-min Rain = 0
KAD1 200107Z 19014KT 14/M03 A2979 RMK A01 T01401029  RH  031%=      5-min Rain = 0
KAD1 200108Z 19013KT 14/M03 A2979 RMK A01 T01371029  RH  032%=      5-min Rain = 0
KAD1 200109Z 19013KT 13/M03 A2979 RMK A01 T01341030  RH  032%=      5-min Rain = 0
KAD1 200110Z 19013KT 13/M03 A2979 RMK A01 T01331029  RH  032%=      5-min Rain = 0
KAD1 200111Z 19013KT 13/M03 A2979 RMK A01 T01321029  RH  033%=      5-min Rain = 0
KAD1 200112Z 19013KT 13/M03 A2979 RMK A01 T01311029  RH  033%=      5-min Rain = 0
KAD1 200113Z 19013KT 13/M03 A2979 RMK A01 T01301029  RH  033%=      5-min Rain = 0
KAD1 200114Z 19014KT 13/M03 A2979 RMK A01 T01311029  RH  033%=      5-min Rain = 0
KAD1 200115Z 19014KT 13/M03 A2979 RMK A01 T01301029  RH  033%=      5-min Rain = 0
KAD1 200116Z 19014KT 13/M03 A2979 RMK A01 T01311029  RH  033%=      5-min Rain = 0
KAD1 200117Z 19014KT 13/M03 A2979 RMK A01 T01311028  RH  033%=      5-min Rain = 0
KAD1 200118Z 19014KT 13/M03 A2979 RMK A01 T01321028  RH  033%=      5-min Rain = 0
KAD1 200119Z 19015KT 13/M03 A2979 RMK A01 T01331027  RH  033%=      5-min Rain = 0
KAD1 200120Z 19014KT 13/M03 A2979 RMK A01 T01341027  RH  033%=      5-min Rain = 0
KAD1 200121Z 19015KT 13/M03 A2979 RMK A01 T01341027  RH  033%=      5-min Rain = 0
KAD1 200122Z 19014KT 14/M03 A2979 RMK A01 T01351026  RH  033%=      5-min Rain = 0
KAD1 200123Z 19015KT 14/M03 A2979 RMK A01 T01361026  RH  032%=      5-min Rain = 0
KAD1 200124Z 20015KT 14/M03 A2979 RMK A01 T01361027  RH  032%=      5-min Rain = 0
KAD1 200125Z 19015KT 14/M03 A2979 RMK A01 T01371027  RH  032%=      5-min Rain = 0
KAD1 200126Z 19015KT 14/M03 A2979 RMK A01 T01381027  RH  032%=      5-min Rain = 0
KAD1 200127Z 20016KT 14/M03 A2979 RMK A01 T01391027  RH  032%=      5-min Rain = 0
KAD1 200128Z 19017KT 14/M03 A2979 RMK A01 T01401027  RH  031%=      5-min Rain = 0
KAD1 200129Z 19016KT 14/M03 A2979 RMK A01 T01411027  RH  031%=      5-min Rain = 0
KAD1 200130Z 20016KT 14/M03 A2979 RMK A01 T01411027  RH  031%=      5-min Rain = 0
KAD1 200131Z 19016KT 14/M03 A2979 RMK A01 T01411027  RH  031%=      5-min Rain = 0
KAD1 200132Z 19016KT 14/M03 A2979 RMK A01 T01411027  RH  031%=      5-min Rain = 0
KAD1 200133Z 19016KT 14/M03 A2979 RMK A01 T01411027  RH  031%=      5-min Rain = 0
KAD1 200134Z 19016KT 14/M03 A2979 RMK A01 T01411027  RH  031%=      5-min Rain = 0
KAD1 200135Z 19016KT 14/M03 A2979 RMK A01 T01411027  RH  031%=      5-min Rain = 0
KAD1 200136Z 20016KT 14/M03 A2979 RMK A01 T01421027  RH  031%=      5-min Rain = 0
KAD1 200137Z 19016KT 14/M03 A2979 RMK A01 T01421027  RH  031%=      5-min Rain = 0
KAD1 200138Z 20017KT 14/M03 A2979 RMK A01 T01421027  RH  031%=      5-min Rain = 0
KAD1 200139Z 20018KT 14/M03 A2979 RMK A01 T01431027  RH  031%=      5-min Rain = 0
KAD1 200140Z 20017KT 14/M03 A2979 RMK A01 T01441028  RH  030%=      5-min Rain = 0
KAD1 200141Z 20017KT 15/M03 A2979 RMK A01 T01451027  RH  030%=      5-min Rain = 0
KAD1 200142Z 20017KT 15/M03 A2979 RMK A01 T01451028  RH  030%=      5-min Rain = 0
KAD1 200143Z 20017KT 15/M03 A2979 RMK A01 T01451027  RH  030%=      5-min Rain = 0
KAD1 200144Z 20017KT 15/M03 A2979 RMK A01 T01451027  RH  030%=      5-min Rain = 0
KAD1 200145Z 19016KT 15/M03 A2979 RMK A01 T01451027  RH  030%=      5-min Rain = 0
KAD1 200146Z 20017KT 14/M03 A2979 RMK A01 T01441027  RH  030%=      5-min Rain = 0
KAD1 200147Z 20016KT 14/M03 A2979 RMK A01 T01441027  RH  031%=      5-min Rain = 0
KAD1 200148Z 19016KT 14/M03 A2979 RMK A01 T01421028  RH  031%=      5-min Rain = 0
KAD1 200149Z 19015KT 14/M03 A2979 RMK A01 T01421027  RH  031%=      5-min Rain = 0
KAD1 200150Z 19017KT 14/M03 A2979 RMK A01 T01421027  RH  031%=      5-min Rain = 0
KAD1 200151Z 19017KT 14/M03 A2979 RMK A01 T01411027  RH  031%=      5-min Rain = 0
KAD1 200152Z 19016KT 14/M03 A2979 RMK A01 T01411027  RH  031%=      5-min Rain = 0
KAD1 200153Z 19016KT 14/M03 A2979 RMK A01 T01401028  RH  031%=      5-min Rain = 0
KAD1 200154Z 19016KT 14/M03 A2979 RMK A01 T01391027  RH  032%=      5-min Rain = 0
KAD1 200155Z 19015KT 14/M03 A2979 RMK A01 T01381027  RH  032%=      5-min Rain = 0
KAD1 200156Z 19015KT 14/M03 A2979 RMK A01 T01371027  RH  032%=      5-min Rain = 0
KAD1 200157Z 19014KT 14/M03 A2979 RMK A01 T01371027  RH  032%=      5-min Rain = 0
KAD1 200158Z 19015KT 14/M03 A2979 RMK A01 T01361027  RH  032%=      5-min Rain = 0
KAD1 200159Z 19015KT 14/M03 A2979 RMK A01 T01351027  RH  032%=      5-min Rain = 0
KAD1 200200Z 19016KT 13/M03 A2979 RMK A01 T01341027  RH  033%=      5-min Rain = 0
KAD1 200201Z 20016KT 13/M03 A2979 RMK A01 T01341027  RH  033%=      5-min Rain = 0
KAD1 200202Z 20016KT 13/M03 A2979 RMK A01 T01341027  RH  033%=      5-min Rain = 0
KAD1 200203Z 20016KT 13/M03 A2979 RMK A01 T01341027  RH  033%=      5-min Rain = 0
KAD1 200204Z 20016KT 14/M03 A2979 RMK A01 T01351026  RH  032%=      5-min Rain = 0
KAD1 200205Z 20016KT 14/M03 A2979 RMK A01 T01361027  RH  032%=      5-min Rain = 0
KAD1 200206Z 19016KT 14/M03 A2979 RMK A01 T01361027  RH  032%=      5-min Rain = 0
KAD1 200207Z 19015KT 13/M03 A2979 RMK A01 T01341027  RH  033%=      5-min Rain = 0
KAD1 200208Z 19016KT 13/M03 A2979 RMK A01 T01311028  RH  033%=      5-min Rain = 0
KAD1 200209Z 19016KT 13/M03 A2979 RMK A01 T01291027  RH  034%=      5-min Rain = 0
KAD1 200210Z 19015KT 13/M03 A2979 RMK A01 T01281027  RH  034%=      5-min Rain = 0
KAD1 200211Z 19016KT 13/M03 A2979 RMK A01 T01281027  RH  034%=      5-min Rain = 0
KAD1 200212Z 20016KT 13/M03 A2979 RMK A01 T01281027  RH  034%=      5-min Rain = 0
KAD1 200213Z 20015KT 13/M03 A2979 RMK A01 T01281027  RH  034%=      5-min Rain = 0
KAD1 200214Z 20015KT 13/M03 A2979 RMK A01 T01291026  RH  034%=      5-min Rain = 0
KAD1 200215Z 20016KT 13/M03 A2979 RMK A01 T01291026  RH  034%=      5-min Rain = 0
KAD1 200216Z 20015KT 13/M03 A2979 RMK A01 T01291026  RH  034%=      5-min Rain = 0
KAD1 200217Z 20015KT 13/M03 A2979 RMK A01 T01291026  RH  034%=      5-min Rain = 0
KAD1 200218Z 20016KT 13/M03 A2979 RMK A01 T01301026  RH  034%=      5-min Rain = 0
KAD1 200219Z 20016KT 13/M03 A2979 RMK A01 T01311026  RH  034%=      5-min Rain = 0
KAD1 200220Z 20015KT 13/M03 A2979 RMK A01 T01311026  RH  034%=      5-min Rain = 0
KAD1 200221Z 20015KT 13/M03 A2979 RMK A01 T01301026  RH  034%=      5-min Rain = 0
KAD1 200222Z 20015KT 13/M03 A2979 RMK A01 T01291026  RH  034%=      5-min Rain = 0
KAD1 200223Z 20014KT 13/M03 A2979 RMK A01 T01281026  RH  034%=      5-min Rain = 0
KAD1 200224Z 19014KT 13/M03 A2979 RMK A01 T01261026  RH  034%=      5-min Rain = 0
KAD1 200225Z 20014KT 13/M03 A2979 RMK A01 T01261026  RH  035%=      5-min Rain = 0
KAD1 200226Z 20014KT 13/M03 A2979 RMK A01 T01251026  RH  035%=      5-min Rain = 0
KAD1 200227Z 20014KT 13/M03 A2979 RMK A01 T01251026  RH  035%=      5-min Rain = 0
KAD1 200228Z 20014KT 12/M03 A2979 RMK A01 T01241026  RH  035%=      5-min Rain = 0
KAD1 200229Z 20014KT 12/M03 A2979 RMK A01 T01241026  RH  035%=      5-min Rain = 0
KAD1 200230Z 20014KT 12/M03 A2979 RMK A01 T01241025  RH  035%=      5-min Rain = 0
KAD1 200231Z 20015KT 12/M03 A2979 RMK A01 T01231025  RH  036%=      5-min Rain = 0
KAD1 200232Z 20015KT 12/M03 A2979 RMK A01 T01241025  RH  035%=      5-min Rain = 0
KAD1 200233Z 20015KT 13/M02 A2979 RMK A01 T01261024  RH  035%=      5-min Rain = 0
KAD1 200234Z 20016KT 13/M02 A2979 RMK A01 T01271024  RH  035%=      5-min Rain = 0
KAD1 200235Z 20017KT 13/M02 A2979 RMK A01 T01291024  RH  035%=      5-min Rain = 0
KAD1 200236Z 20016KT 13/M02 A2979 RMK A01 T01301024  RH  034%=      5-min Rain = 0
KAD1 200237Z 20016KT 13/M03 A2979 RMK A01 T01301025  RH  034%=      5-min Rain = 0
KAD1 200238Z 20016KT 13/M02 A2979 RMK A01 T01301024  RH  034%=      5-min Rain = 0
KAD1 200239Z 20016KT 13/M03 A2979 RMK A01 T01291025  RH  034%=      5-min Rain = 0
KAD1 200240Z 20015KT 13/M03 A2979 RMK A01 T01291025  RH  034%=      5-min Rain = 0
KAD1 200241Z 19015KT 13/M02 A2979 RMK A01 T01291024  RH  034%=      5-min Rain = 0
KAD1 200242Z 20015KT 13/M03 A2979 RMK A01 T01271025  RH  035%=      5-min Rain = 0
KAD1 200243Z 20015KT 13/M03 A2979 RMK A01 T01271025  RH  035%=      5-min Rain = 0
KAD1 200244Z 20016KT 13/M02 A2979 RMK A01 T01271024  RH  035%=      5-min Rain = 0
KAD1 200245Z 20015KT 13/M03 A2979 RMK A01 T01271025  RH  035%=      5-min Rain = 0
KAD1 200246Z 20015KT 13/M02 A2979 RMK A01 T01271024  RH  035%=      5-min Rain = 0
KAD1 200247Z 20015KT 13/M02 A2979 RMK A01 T01271024  RH  035%=      5-min Rain = 0
KAD1 200248Z 20015KT 13/M02 A2979 RMK A01 T01271024  RH  035%=      5-min Rain = 0
KAD1 200249Z 20014KT 13/M02 A2979 RMK A01 T01271024  RH  035%=      5-min Rain = 0
KAD1 200250Z 20015KT 13/M02 A2979 RMK A01 T01271024  RH  035%=      5-min Rain = 0
KAD1 200251Z 20015KT 13/M02 A2979 RMK A01 T01281024  RH  035%=      5-min Rain = 0
KAD1 200252Z 20015KT 13/M02 A2979 RMK A01 T01291023  RH  035%=      5-min Rain = 0
KAD1 200253Z 20015KT 13/M02 A2979 RMK A01 T01291024  RH  035%=      5-min Rain = 0
KAD1 200254Z 20015KT 13/M02 A2979 RMK A01 T01301023  RH  035%=      5-min Rain = 0
KAD1 200255Z 20015KT 13/M02 A2979 RMK A01 T01301023  RH  034%=      5-min Rain = 0
KAD1 200256Z 19016KT 13/M02 A2979 RMK A01 T01301023  RH  034%=      5-min Rain = 0
KAD1 200257Z 19015KT 13/M02 A2979 RMK A01 T01301023  RH  035%=      5-min Rain = 0
KAD1 200258Z 20014KT 13/M02 A2979 RMK A01 T01291023  RH  035%=      5-min Rain = 0
KAD1 200259Z 20015KT 13/M02 A298 RMK A01 T01281023  RH  035%=      5-min Rain = 0
KAD1 200300Z 19015KT 13/M02 A2979 RMK A01 T01271022  RH  035%=      5-min Rain = 0
KAD1 200301Z 20015KT 13/M02 A2979 RMK A01 T01281022  RH  035%=      5-min Rain = 0
KAD1 200302Z 20016KT 13/M02 A2979 RMK A01 T01281022  RH  035%=      5-min Rain = 0
KAD1 200303Z 20016KT 13/M02 A2979 RMK A01 T01301022  RH  035%=      5-min Rain = 0
KAD1 200304Z 20016KT 13/M02 A2979 RMK A01 T01301021  RH  035%=      5-min Rain = 0
KAD1 200305Z 20015KT 13/M02 A2979 RMK A01 T01301022  RH  035%=      5-min Rain = 0
KAD1 200306Z 20015KT 13/M02 A2979 RMK A01 T01301021  RH  035%=      5-min Rain = 0
KAD1 200307Z 20017KT 13/M02 A2979 RMK A01 T01301021  RH  035%=      5-min Rain = 0
KAD1 200308Z 20016KT 13/M02 A2979 RMK A01 T01301022  RH  035%=      5-min Rain = 0
KAD1 200309Z 20017KT 13/M02 A2979 RMK A01 T01311021  RH  035%=      5-min Rain = 0
KAD1 200310Z 20016KT 13/M02 A298 RMK A01 T01321021  RH  035%=      5-min Rain = 0
KAD1 200311Z 20017KT 13/M02 A298 RMK A01 T01321021  RH  034%=      5-min Rain = 0
KAD1 200312Z 20017KT 13/M02 A298 RMK A01 T01331020  RH  034%=      5-min Rain = 0
KAD1 200313Z 20017KT 14/M02 A298 RMK A01 T01351021  RH  034%=      5-min Rain = 0
KAD1 200314Z 20017KT 14/M02 A298 RMK A01 T01351021  RH  034%=      5-min Rain = 0
KAD1 200315Z 20017KT 14/M02 A298 RMK A01 T01361021  RH  034%=      5-min Rain = 0
KAD1 200316Z 20017KT 14/M02 A298 RMK A01 T01381020  RH  034%=      5-min Rain = 0
KAD1 200317Z 20017KT 14/M02 A298 RMK A01 T01371021  RH  033%=      5-min Rain = 0
KAD1 200318Z 20017KT 14/M02 A298 RMK A01 T01381021  RH  033%=      5-min Rain = 0
KAD1 200319Z 20017KT 14/M02 A298 RMK A01 T01391020  RH  033%=      5-min Rain = 0
KAD1 200320Z 20016KT 14/M02 A298 RMK A01 T01401020  RH  033%=      5-min Rain = 0
KAD1 200321Z 20017KT 14/M02 A298 RMK A01 T01401020  RH  033%=      5-min Rain = 0
KAD1 200322Z 20017KT 14/M02 A298 RMK A01 T01401020  RH  033%=      5-min Rain = 0
KAD1 200323Z 20017KT 14/M02 A298 RMK A01 T01401020  RH  033%=      5-min Rain = 0
KAD1 200324Z 20016KT 14/M02 A298 RMK A01 T01401020  RH  033%=      5-min Rain = 0
KAD1 200325Z 20016KT 14/M02 A298 RMK A01 T01401020  RH  033%=      5-min Rain = 0
KAD1 200326Z 20016KT 14/M02 A298 RMK A01 T01401020  RH  033%=      5-min Rain = 0
KAD1 200327Z 20016KT 14/M02 A298 RMK A01 T01401020  RH  033%=      5-min Rain = 0
KAD1 200328Z 20015KT 14/M02 A298 RMK A01 T01401020  RH  033%=      5-min Rain = 0
KAD1 200329Z 20015KT 14/M02 A298 RMK A01 T01401020  RH  033%=      5-min Rain = 0
KAD1 200330Z 20015KT 14/M02 A298 RMK A01 T01391020  RH  033%=      5-min Rain = 0
KAD1 200331Z 20015KT 14/M02 A298 RMK A01 T01391020  RH  033%=      5-min Rain = 0
KAD1 200332Z 20015KT 14/M02 A298 RMK A01 T01391020  RH  033%=      5-min Rain = 0
KAD1 200333Z 20015KT 14/M02 A298 RMK A01 T01401020  RH  033%=      5-min Rain = 0
KAD1 200334Z 20016KT 14/M02 A298 RMK A01 T01411020  RH  033%=      5-min Rain = 0
KAD1 200335Z 20015KT 14/M02 A298 RMK A01 T01411020  RH  033%=      5-min Rain = 0
KAD1 200336Z 20017KT 14/M02 A298 RMK A01 T01411019  RH  033%=      5-min Rain = 0
KAD1 200337Z 20016KT 14/M02 A298 RMK A01 T01421019  RH  033%=      5-min Rain = 0
KAD1 200338Z 20015KT 14/M02 A298 RMK A01 T01431020  RH  033%=      5-min Rain = 0
KAD1 200339Z 20016KT 14/M02 A298 RMK A01 T01441020  RH  032%=      5-min Rain = 0
KAD1 200340Z 20015KT 14/M02 A298 RMK A01 T01441020  RH  032%=      5-min Rain = 0
KAD1 200341Z 20014KT 14/M02 A298 RMK A01 T01431020  RH  032%=      5-min Rain = 0
KAD1 200342Z 21014KT 14/M02 A298 RMK A01 T01421020  RH  033%=      5-min Rain = 0
KAD1 200343Z 20016KT 14/M02 A298 RMK A01 T01411019  RH  033%=      5-min Rain = 0
KAD1 200344Z 20018KT 14/M02 A298 RMK A01 T01411019  RH  033%=      5-min Rain = 0
KAD1 200345Z 20016KT 14/M02 A298 RMK A01 T01421019  RH  033%=      5-min Rain = 0
KAD1 200346Z 20018KT 14/M02 A298 RMK A01 T01421019  RH  033%=      5-min Rain = 0
KAD1 200347Z 20016KT 14/M02 A298 RMK A01 T01421019  RH  033%=      5-min Rain = 0
KAD1 200348Z 20017KT 14/M02 A298 RMK A01 T01421019  RH  033%=      5-min Rain = 0
KAD1 200349Z 20018KT 14/M02 A298 RMK A01 T01431018  RH  033%=      5-min Rain = 0
KAD1 200350Z 20016KT 14/M02 A298 RMK A01 T01441018  RH  033%=      5-min Rain = 0
KAD1 200351Z 21016KT 15/M02 A298 RMK A01 T01451018  RH  032%=      5-min Rain = 0
KAD1 200352Z 20017KT 15/M02 A298 RMK A01 T01451018  RH  032%=      5-min Rain = 0
KAD1 200353Z 20016KT 15/M02 A298 RMK A01 T01451018  RH  033%=      5-min Rain = 0
KAD1 200354Z 20016KT 15/M02 A298 RMK A01 T01451018  RH  033%=      5-min Rain = 0
KAD1 200355Z 21016KT 15/M02 A298 RMK A01 T01451018  RH  033%=      5-min Rain = 0
KAD1 200356Z 21017KT 15/M02 A2979 RMK A01 T01451018  RH  033%=      5-min Rain = 0
KAD1 200357Z 21017KT 15/M02 A2979 RMK A01 T01451018  RH  032%=      5-min Rain = 0
KAD1 200358Z 21018KT 15/M02 A2979 RMK A01 T01461018  RH  032%=      5-min Rain = 0
KAD1 200359Z 21016KT 15/M02 A2979 RMK A01 T01461018  RH  032%=      5-min Rain = 0
KAD1 200400Z 21017KT 15/M02 A2979 RMK A01 T01471018  RH  032%=      5-min Rain = 0
KAD1 200401Z 21016KT 15/M02 A2979 RMK A01 T01461018  RH  032%=      5-min Rain = 0
KAD1 200402Z 21016KT 15/M02 A2979 RMK A01 T01451018  RH  032%=      5-min Rain = 0
KAD1 200403Z 21019KT 15/M02 A2979 RMK A01 T01451018  RH  033%=      5-min Rain = 0
KAD1 200404Z 21018KT 15/M02 A2979 RMK A01 T01451017  RH  033%=      5-min Rain = 0
KAD1 200405Z 21017KT 15/M02 A2979 RMK A01 T01451018  RH  033%=      5-min Rain = 0
KAD1 200406Z 21017KT 15/M02 A2979 RMK A01 T01451018  RH  033%=      5-min Rain = 0
KAD1 200407Z 21016KT 14/M02 A2979 RMK A01 T01431018  RH  033%=      5-min Rain = 0
KAD1 200408Z 21017KT 14/M02 A2979 RMK A01 T01431018  RH  033%=      5-min Rain = 0
KAD1 200409Z 21017KT 14/M02 A2979 RMK A01 T01421018  RH  033%=      5-min Rain = 0
KAD1 200410Z 21016KT 14/M02 A2979 RMK A01 T01411018  RH  033%=      5-min Rain = 0
KAD1 200411Z 21018KT 14/M02 A2979 RMK A01 T01411018  RH  033%=      5-min Rain = 0
KAD1 200412Z 21017KT 14/M02 A2979 RMK A01 T01401018  RH  034%=      5-min Rain = 0
KAD1 200413Z 21017KT 14/M02 A2979 RMK A01 T01391018  RH  034%=      5-min Rain = 0
KAD1 200414Z 21018KT 14/M02 A2979 RMK A01 T01391018  RH  034%=      5-min Rain = 0
KAD1 200415Z 21016KT 14/M02 A2979 RMK A01 T01391018  RH  034%=      5-min Rain = 0
KAD1 200416Z 21017KT 14/M02 A2979 RMK A01 T01381018  RH  034%=      5-min Rain = 0
KAD1 200417Z 21016KT 14/M02 A2979 RMK A01 T01391017  RH  034%=      5-min Rain = 0
KAD1 200418Z 21015KT 14/M02 A2979 RMK A01 T01381018  RH  034%=      5-min Rain = 0
KAD1 200419Z 21017KT 14/M02 A2979 RMK A01 T01381017  RH  034%=      5-min Rain = 0
KAD1 200420Z 21017KT 14/M02 A2979 RMK A01 T01381017  RH  034%=      5-min Rain = 0
KAD1 200421Z 21018KT 14/M02 A2979 RMK A01 T01381017  RH  034%=      5-min Rain = 0
KAD1 200422Z 20016KT 14/M02 A2979 RMK A01 T01391017  RH  034%=      5-min Rain = 0
KAD1 200423Z 20016KT 14/M02 A2979 RMK A01 T01391017  RH  034%=      5-min Rain = 0
KAD1 200424Z 20016KT 14/M02 A2979 RMK A01 T01401017  RH  034%=      5-min Rain = 0
KAD1 200425Z 20016KT 14/M02 A2979 RMK A01 T01401017  RH  034%=      5-min Rain = 0
KAD1 200426Z 21016KT 14/M02 A2979 RMK A01 T01401017  RH  034%=      5-min Rain = 0
KAD1 200427Z 20016KT 14/M02 A2979 RMK A01 T01411017  RH  034%=      5-min Rain = 0
KAD1 200428Z 21015KT 14/M02 A2979 RMK A01 T01411017  RH  034%=      5-min Rain = 0
KAD1 200429Z 21017KT 14/M02 A2979 RMK A01 T01401017  RH  034%=      5-min Rain = 0
KAD1 200430Z 21017KT 14/M02 A2979 RMK A01 T01401017  RH  034%=      5-min Rain = 0
KAD1 200431Z 21017KT 14/M02 A2979 RMK A01 T01391017  RH  034%=      5-min Rain = 0
KAD1 200432Z 20018KT 14/M02 A2979 RMK A01 T01391017  RH  034%=      5-min Rain = 0
KAD1 200433Z 20018KT 14/M02 A2979 RMK A01 T01391017  RH  034%=      5-min Rain = 0
KAD1 200434Z 21019KT 14/M02 A2979 RMK A01 T01381017  RH  034%=      5-min Rain = 0
KAD1 200435Z 21018KT 14/M02 A2979 RMK A01 T01381018  RH  034%=      5-min Rain = 0
KAD1 200436Z 20018KT 14/M02 A2979 RMK A01 T01381018  RH  034%=      5-min Rain = 0
KAD1 200437Z 21017KT 14/M02 A2979 RMK A01 T01371018  RH  034%=      5-min Rain = 0
KAD1 200438Z 21016KT 14/M02 A2979 RMK A01 T01361018  RH  034%=      5-min Rain = 0
KAD1 200439Z 21016KT 14/M02 A2979 RMK A01 T01351018  RH  035%=      5-min Rain = 0
KAD1 200440Z 21015KT 14/M02 A2979 RMK A01 T01351017  RH  035%=      5-min Rain = 0
KAD1 200441Z 21016KT 13/M02 A2979 RMK A01 T01331018  RH  035%=      5-min Rain = 0
KAD1 200442Z 21015KT 13/M02 A2979 RMK A01 T01331017  RH  035%=      5-min Rain = 0
KAD1 200443Z 21015KT 13/M02 A2979 RMK A01 T01321017  RH  035%=      5-min Rain = 0
KAD1 200444Z 21015KT 13/M02 A2979 RMK A01 T01321018  RH  036%=      5-min Rain = 0
KAD1 200445Z 21016KT 13/M02 A2979 RMK A01 T01321017  RH  036%=      5-min Rain = 0
KAD1 200446Z 21016KT 13/M02 A2979 RMK A01 T01331017  RH  035%=      5-min Rain = 0
KAD1 200447Z 21017KT 13/M02 A2979 RMK A01 T01341017  RH  035%=      5-min Rain = 0
KAD1 200448Z 21018KT 14/M02 A2979 RMK A01 T01361017  RH  035%=      5-min Rain = 0
KAD1 200449Z 21017KT 14/M02 A2979 RMK A01 T01361017  RH  035%=      5-min Rain = 0
KAD1 200450Z 21018KT 14/M02 A2979 RMK A01 T01371017  RH  034%=      5-min Rain = 0
KAD1 200451Z 21017KT 14/M02 A2979 RMK A01 T01361018  RH  034%=      5-min Rain = 0
KAD1 200452Z 21017KT 14/M02 A2979 RMK A01 T01361018  RH  034%=      5-min Rain = 0
KAD1 200453Z 21016KT 14/M02 A2979 RMK A01 T01361018  RH  034%=      5-min Rain = 0
KAD1 200454Z 21018KT 14/M02 A2979 RMK A01 T01361018  RH  034%=      5-min Rain = 0
KAD1 200455Z 21017KT 14/M02 A2979 RMK A01 T01361018  RH  034%=      5-min Rain = 0
KAD1 200456Z 21017KT 14/M02 A2979 RMK A01 T01351017  RH  035%=      5-min Rain = 0
KAD1 200457Z 21017KT 13/M02 A2979 RMK A01 T01341017  RH  035%=      5-min Rain = 0
KAD1 200458Z 21017KT 13/M02 A2979 RMK A01 T01341017  RH  035%=      5-min Rain = 0
KAD1 200459Z 21016KT 13/M02 A2979 RMK A01 T01331017  RH  035%=      5-min Rain = 0
KAD1 200500Z 21017KT 13/M02 A2979 RMK A01 T01311017  RH  036%=      5-min Rain = 0
KAD1 200501Z 21016KT 13/M02 A2979 RMK A01 T01311017  RH  036%=      5-min Rain = 0
KAD1 200502Z 21016KT 13/M02 A2979 RMK A01 T01311017  RH  036%=      5-min Rain = 0
KAD1 200503Z 21015KT 13/M02 A2979 RMK A01 T01301018  RH  036%=      5-min Rain = 0
KAD1 200504Z 21014KT 13/M02 A2979 RMK A01 T01301017  RH  036%=      5-min Rain = 0
KAD1 200505Z 21014KT 13/M02 A2979 RMK A01 T01281018  RH  036%=      5-min Rain = 0
KAD1 200506Z 20014KT 13/M02 A2979 RMK A01 T01271017  RH  037%=      5-min Rain = 0
KAD1 200507Z 20014KT 13/M02 A2979 RMK A01 T01251018  RH  037%=      5-min Rain = 0
KAD1 200508Z 20013KT 12/M02 A2979 RMK A01 T01241018  RH  037%=      5-min Rain = 0
KAD1 200509Z 20014KT 12/M02 A2979 RMK A01 T01241018  RH  037%=      5-min Rain = 0
KAD1 200510Z 20015KT 12/M02 A2979 RMK A01 T01231018  RH  038%=      5-min Rain = 0
KAD1 200511Z 21014KT 12/M02 A2979 RMK A01 T01231017  RH  038%=      5-min Rain = 0
KAD1 200512Z 20013KT 12/M02 A2979 RMK A01 T01231018  RH  038%=      5-min Rain = 0
KAD1 200513Z 20013KT 12/M02 A2979 RMK A01 T01231018  RH  038%=      5-min Rain = 0
KAD1 200514Z 20012KT 12/M02 A2979 RMK A01 T01221018  RH  038%=      5-min Rain = 0
KAD1 200515Z 20012KT 12/M02 A2979 RMK A01 T01221018  RH  038%=      5-min Rain = 0
KAD1 200516Z 21012KT 12/M02 A2979 RMK A01 T01211018  RH  038%=      5-min Rain = 0
KAD1 200517Z 21012KT 12/M02 A2979 RMK A01 T01211018  RH  038%=      5-min Rain = 0
KAD1 200518Z 21013KT 12/M02 A2979 RMK A01 T01211018  RH  038%=      5-min Rain = 0
KAD1 200519Z 21013KT 12/M02 A2979 RMK A01 T01211018  RH  038%=      5-min Rain = 0
KAD1 200520Z 21012KT 12/M02 A2979 RMK A01 T01211018  RH  038%=      5-min Rain = 0
KAD1 200521Z 21012KT 12/M02 A2979 RMK A01 T01221018  RH  038%=      5-min Rain = 0
KAD1 200522Z 22013KT 12/M02 A2979 RMK A01 T01231018  RH  038%=      5-min Rain = 0
KAD1 200523Z 21012KT 12/M02 A2979 RMK A01 T01231017  RH  038%=      5-min Rain = 0
KAD1 200524Z 21012KT 12/M02 A2979 RMK A01 T01241018  RH  037%=      5-min Rain = 0
KAD1 200525Z 21012KT 13/M02 A2978 RMK A01 T01261018  RH  037%=      5-min Rain = 0
KAD1 200526Z 22013KT 13/M02 A2978 RMK A01 T01271018  RH  036%=      5-min Rain = 0
KAD1 200527Z 21014KT 13/M02 A2978 RMK A01 T01281018  RH  036%=      5-min Rain = 0
KAD1 200528Z 21015KT 13/M02 A2978 RMK A01 T01291018  RH  036%=      5-min Rain = 0
KAD1 200529Z 21014KT 13/M02 A2978 RMK A01 T01291018  RH  036%=      5-min Rain = 0
KAD1 200530Z 21015KT 13/M02 A2978 RMK A01 T01271018  RH  036%=      5-min Rain = 0
KAD1 200531Z 21015KT 13/M02 A2978 RMK A01 T01251018  RH  037%=      5-min Rain = 0
KAD1 200532Z 21016KT 13/M02 A2978 RMK A01 T01251018  RH  037%=      5-min Rain = 0
KAD1 200533Z 20016KT 13/M02 A2978 RMK A01 T01251017  RH  037%=      5-min Rain = 0
KAD1 200534Z 21015KT 13/M02 A2978 RMK A01 T01251017  RH  037%=      5-min Rain = 0
KAD1 200535Z 21016KT 13/M02 A2978 RMK A01 T01251018  RH  037%=      5-min Rain = 0
KAD1 200536Z 20017G22KT 13/M02 A2978 RMK A01 T01251018  RH  037%=      5-min Rain = 0
KAD1 200537Z 20017KT 13/M02 A2978 RMK A01 T01251018  RH  037%=      5-min Rain = 0
KAD1 200538Z 20016KT 12/M02 A2978 RMK A01 T01241018  RH  037%=      5-min Rain = 0
KAD1 200539Z 21018KT 12/M02 A2978 RMK A01 T01231018  RH  037%=      5-min Rain = 0
KAD1 200540Z 21018KT 12/M02 A2978 RMK A01 T01241018  RH  037%=      5-min Rain = 0
KAD1 200541Z 21017KT 13/M02 A2978 RMK A01 T01251018  RH  037%=      5-min Rain = 0
KAD1 200542Z 21018KT 13/M02 A2978 RMK A01 T01271019  RH  036%=      5-min Rain = 0
KAD1 200543Z 21018G23KT 13/M02 A2978 RMK A01 T01281019  RH  036%=      5-min Rain = 0
KAD1 200544Z 21018KT 13/M02 A2978 RMK A01 T01301019  RH  036%=      5-min Rain = 0
KAD1 200545Z 21018KT 13/M02 A2978 RMK A01 T01311020  RH  035%=      5-min Rain = 0
KAD1 200546Z 21018KT 13/M02 A2978 RMK A01 T01321020  RH  035%=      5-min Rain = 0
KAD1 200547Z 21017KT 13/M02 A2978 RMK A01 T01321020  RH  035%=      5-min Rain = 0
KAD1 200548Z 21017G22KT 13/M02 A2978 RMK A01 T01321020  RH  035%=      5-min Rain = 0
KAD1 200549Z 21018KT 13/M02 A2978 RMK A01 T01321020  RH  035%=      5-min Rain = 0
KAD1 200550Z 21017G22KT 13/M02 A2978 RMK A01 T01321021  RH  035%=      5-min Rain = 0
KAD1 200551Z 21018KT 13/M02 A2978 RMK A01 T01331021  RH  034%=      5-min Rain = 0
KAD1 200552Z 21017KT 13/M02 A2978 RMK A01 T01321021  RH  035%=      5-min Rain = 0
KAD1 200553Z 21015KT 13/M02 A2978 RMK A01 T01311021  RH  035%=      5-min Rain = 0
KAD1 200554Z 21016KT 13/M02 A2978 RMK A01 T01301021  RH  035%=      5-min Rain = 0
KAD1 200555Z 21016KT 13/M02 A2978 RMK A01 T01301021  RH  035%=      5-min Rain = 0
KAD1 200556Z 21016KT 13/M02 A2978 RMK A01 T01301021  RH  035%=      5-min Rain = 0
KAD1 200557Z 21015KT 13/M02 A2978 RMK A01 T01291021  RH  035%=      5-min Rain = 0
KAD1 200558Z 21014KT 13/M02 A2978 RMK A01 T01281021  RH  035%=      5-min Rain = 0
KAD1 200559Z 21015KT 13/M02 A2978 RMK A01 T01271020  RH  036%=      5-min Rain = 0

Page generated in 0.077 seconds.